Wetterdaten: Montag, 17.07.2023
Datum Zeit Temp. Aussen Temp. o. S. Temp +5cm Feuchte Auss Luftdruck Regen Sonnenschein Regendauer Solar Windben Empfang
17.07.2023 00:00 19,8 C 18,3 C 15,0 C 75 % 1015,9 hPa 0,0 l/m 0 min 0 min 0 W/m 0,0 km/h (0 Bft) 100,00 %
17.07.2023 00:02 19,8 C 18,3 C 15,0 C 75 % 1015,9 hPa 0,0 l/m 0 min 0 min 0 W/m 0,0 km/h (0 Bft) 20,00 %
17.07.2023 00:04 19,8 C 18,3 C 15,0 C 76 % 1016,0 hPa 0,0 l/m 0 min 0 min 0 W/m 0,0 km/h (0 Bft) 40,91 %
17.07.2023 00:08 19,8 C 18,3 C 15,0 C 76 % 1016,0 hPa 0,0 l/m 0 min 0 min 0 W/m 0,0 km/h (0 Bft) 100,00 %
17.07.2023 00:10 19,7 C 18,3 C 15,0 C 76 % 1015,9 hPa 0,0 l/m 0 min 0 min 0 W/m 0,0 km/h (0 Bft) 97,83 %
17.07.2023 00:12 19,7 C 18,3 C 15,0 C 75 % 1015,8 hPa 0,0 l/m 0 min 0 min 0 W/m 0,0 km/h (0 Bft) 100,00 %
17.07.2023 00:14 19,7 C 18,3 C 15,0 C 75 % 1015,9 hPa 0,0 l/m 0 min 0 min 0 W/m 0,0 km/h (0 Bft) 100,00 %
17.07.2023 00:16 19,7 C 18,3 C 15,0 C 76 % 1015,8 hPa 0,0 l/m 0 min 0 min 0 W/m 0,0 km/h (0 Bft) 100,00 %
17.07.2023 00:18 19,7 C 18,3 C 15,0 C 77 % 1015,8 hPa 0,0 l/m 0 min 0 min 0 W/m 0,0 km/h (0 Bft) 100,00 %
17.07.2023 00:20 19,7 C 18,3 C 15,0 C 77 % 1015,8 hPa 0,0 l/m 0 min 0 min 0 W/m 0,0 km/h (0 Bft) 93,62 %
17.07.2023 00:22 19,7 C 18,3 C 15,0 C 76 % 1015,8 hPa 0,0 l/m 0 min 0 min 0 W/m 0,0 km/h (0 Bft) 100,00 %
17.07.2023 00:24 19,6 C 18,3 C 15,0 C 76 % 1015,9 hPa 0,0 l/m 0 min 0 min 0 W/m 0,0 km/h (0 Bft) 100,00 %
17.07.2023 00:26 19,6 C 18,3 C 15,0 C 76 % 1015,9 hPa 0,0 l/m 0 min 0 min 0 W/m 0,0 km/h (0 Bft) 97,87 %
17.07.2023 00:28 19,6 C 18,3 C 15,0 C 76 % 1015,9 hPa 0,0 l/m 0 min 0 min 0 W/m 0,0 km/h (0 Bft) 95,74 %
17.07.2023 00:30 19,6 C 18,3 C 14,4 C 77 % 1015,9 hPa 0,0 l/m 0 min 0 min 0 W/m 0,0 km/h (0 Bft) 97,92 %
17.07.2023 00:32 19,6 C 18,3 C 14,4 C 77 % 1015,9 hPa 0,0 l/m 0 min 0 min 0 W/m 0,0 km/h (0 Bft) 97,87 %
17.07.2023 00:34 19,5 C 18,3 C 14,4 C 77 % 1015,9 hPa 0,0 l/m 0 min 0 min 0 W/m 0,0 km/h (0 Bft) 95,74 %
17.07.2023 00:36 19,5 C 17,8 C 14,4 C 77 % 1015,9 hPa 0,0 l/m 0 min 0 min 0 W/m 0,0 km/h (0 Bft) 93,48 %
17.07.2023 00:38 19,4 C 17,8 C 14,4 C 77 % 1015,8 hPa 0,0 l/m 0 min 0 min 0 W/m 0,0 km/h (0 Bft) 95,74 %
17.07.2023 00:40 19,4 C 17,8 C 14,4 C 78 % 1015,9 hPa 0,0 l/m 0 min 0 min 0 W/m 0,0 km/h (0 Bft) 95,83 %
17.07.2023 00:42 19,4 C 17,8 C 14,4 C 78 % 1015,9 hPa 0,0 l/m 0 min 0 min 0 W/m 0,0 km/h (0 Bft) 93,62 %
17.07.2023 00:44 19,3 C 17,8 C 14,4 C 78 % 1015,9 hPa 0,0 l/m 0 min 0 min 0 W/m 0,0 km/h (0 Bft) 95,74 %
17.07.2023 00:46 19,3 C 17,8 C 14,4 C 78 % 1015,9 hPa 0,0 l/m 0 min 0 min 0 W/m 0,0 km/h (0 Bft) 95,74 %
17.07.2023 00:48 19,3 C 17,8 C 13,9 C 79 % 1015,9 hPa 0,0 l/m 0 min 0 min 0 W/m 0,0 km/h (0 Bft) 95,74 %
17.07.2023 00:50 19,2 C 17,8 C 13,9 C 79 % 1015,9 hPa 0,0 l/m 0 min 0 min 0 W/m 0,0 km/h (0 Bft) 91,84 %
17.07.2023 00:52 19,2 C 17,2 C 13,9 C 79 % 1015,9 hPa 0,0 l/m 0 min 0 min 0 W/m 0,0 km/h (0 Bft) 95,74 %
17.07.2023 00:54 19,1 C 17,2 C 13,9 C 79 % 1015,9 hPa 0,0 l/m 0 min 0 min 0 W/m 0,0 km/h (0 Bft) 95,74 %
17.07.2023 00:56 19,1 C 17,2 C 13,9 C 79 % 1015,9 hPa 0,0 l/m 0 min 0 min 0 W/m 0,0 km/h (0 Bft) 95,74 %
17.07.2023 00:58 19,0 C 17,2 C 13,9 C 79 % 1015,9 hPa 0,0 l/m 0 min 0 min 0 W/m 0,0 km/h (0 Bft) 94,44 %
17.07.2023 01:00 18,9 C 17,2 C 13,9 C 80 % 1015,8 hPa 0,0 l/m 0 min 0 min 0 W/m 0,0 km/h (0 Bft) 95,74 %
17.07.2023 01:02 18,9 C 17,2 C 13,9 C 80 % 1015,8 hPa 0,0 l/m 0 min 0 min 0 W/m 0,0 km/h (0 Bft) 95,74 %
17.07.2023 01:04 18,8 C 17,2 C 13,3 C 80 % 1015,8 hPa 0,0 l/m 0 min 0 min 0 W/m 0,0 km/h (0 Bft) 97,96 %
17.07.2023 01:06 18,8 C 17,2 C 13,3 C 80 % 1015,9 hPa 0,0 l/m 0 min 0 min 0 W/m 0,0 km/h (0 Bft) 97,87 %
17.07.2023 01:08 18,7 C 17,2 C 13,3 C 80 % 1015,9 hPa 0,0 l/m 0 min 0 min 0 W/m 0,0 km/h (0 Bft) 97,87 %
17.07.2023 01:10 18,7 C 17,2 C 13,9 C 80 % 1015,9 hPa 0,0 l/m 0 min 0 min 0 W/m 0,0 km/h (0 Bft) 98,15 %
17.07.2023 01:12 18,6 C 17,2 C 13,9 C 80 % 1015,9 hPa 0,0 l/m 0 min 0 min 0 W/m 0,0 km/h (0 Bft) 100,00 %
17.07.2023 01:14 18,6 C 17,2 C 13,9 C 80 % 1015,9 hPa 0,0 l/m 0 min 0 min 0 W/m 0,0 km/h (0 Bft) 100,00 %
17.07.2023 01:16 18,6 C 17,2 C 13,9 C 80 % 1016,0 hPa 0,0 l/m 0 min 0 min 0 W/m 0,0 km/h (0 Bft) 97,87 %
17.07.2023 01:18 18,5 C 17,2 C 13,9 C 81 % 1016,0 hPa 0,0 l/m 0 min 0 min 0 W/m 0,0 km/h (0 Bft) 100,00 %
17.07.2023 01:20 18,5 C 17,2 C 13,9 C 81 % 1016,0 hPa 0,0 l/m 0 min 0 min 0 W/m 0,0 km/h (0 Bft) 100,00 %
17.07.2023 01:22 18,4 C 17,2 C 13,9 C 81 % 1016,0 hPa 0,0 l/m 0 min 0 min 0 W/m 0,0 km/h (0 Bft) 100,00 %
17.07.2023 01:24 18,4 C 17,2 C 13,9 C 81 % 1016,0 hPa 0,0 l/m 0 min 0 min 0 W/m 0,0 km/h (0 Bft) 100,00 %
17.07.2023 01:26 18,4 C 17,2 C 13,9 C 81 % 1016,1 hPa 0,0 l/m 0 min 0 min 0 W/m 0,0 km/h (0 Bft) 100,00 %
17.07.2023 01:28 18,4 C 17,2 C 13,9 C 81 % 1016,2 hPa 0,0 l/m 0 min 0 min 0 W/m 0,0 km/h (0 Bft) 97,83 %
17.07.2023 01:30 18,3 C 17,2 C 13,9 C 81 % 1016,3 hPa 0,0 l/m 0 min 0 min 0 W/m 0,0 km/h (0 Bft) 100,00 %
17.07.2023 01:32 18,3 C 17,2 C 13,9 C 81 % 1016,3 hPa 0,0 l/m 0 min 0 min 0 W/m 0,0 km/h (0 Bft) 97,87 %
17.07.2023 01:34 18,3 C 17,2 C 13,9 C 82 % 1016,4 hPa 0,0 l/m 0 min 0 min 0 W/m 3,2 km/h (1 Bft) 100,00 %
17.07.2023 01:36 18,3 C 17,2 C 13,9 C 82 % 1016,6 hPa 0,0 l/m 0 min 2 min 0 W/m 6,4 km/h (2 Bft) 100,00 %
17.07.2023 01:38 18,4 C 17,8 C 13,3 C 83 % 1016,6 hPa 0,0 l/m 0 min 2 min 0 W/m 3,2 km/h (1 Bft) 100,00 %
17.07.2023 01:40 18,4 C 17,2 C 12,8 C 84 % 1016,5 hPa 0,0 l/m 0 min 2 min 0 W/m 3,2 km/h (1 Bft) 100,00 %
17.07.2023 01:42 18,4 C 17,2 C 12,8 C 84 % 1016,5 hPa 0,0 l/m 0 min 0 min 0 W/m 6,4 km/h (2 Bft) 100,00 %
17.07.2023 01:44 18,4 C 17,2 C 12,8 C 84 % 1016,6 hPa 0,0 l/m 0 min 0 min 0 W/m 6,4 km/h (2 Bft) 100,00 %
17.07.2023 01:46 18,4 C 17,2 C 12,8 C 84 % 1016,6 hPa 0,0 l/m 0 min 0 min 0 W/m 9,7 km/h (2 Bft) 97,87 %
17.07.2023 01:48 18,4 C 17,2 C 12,8 C 84 % 1016,6 hPa 0,0 l/m 0 min 2 min 0 W/m 12,9 km/h (3 Bft) 97,87 %
17.07.2023 01:50 18,3 C 17,2 C 12,8 C 84 % 1016,6 hPa 0,0 l/m 0 min 0 min 0 W/m 9,7 km/h (2 Bft) 97,87 %
17.07.2023 01:52 18,3 C 17,2 C 12,8 C 84 % 1016,6 hPa 0,0 l/m 0 min 0 min 0 W/m 19,3 km/h (3 Bft) 95,74 %
17.07.2023 01:54 18,2 C 17,2 C 13,3 C 83 % 1016,7 hPa 0,0 l/m 0 min 0 min 0 W/m 12,9 km/h (3 Bft) 97,14 %
17.07.2023 01:56 18,2 C 17,2 C 13,3 C 84 % 1016,7 hPa 0,0 l/m 0 min 2 min 0 W/m 6,4 km/h (2 Bft) 97,87 %
17.07.2023 01:58 18,2 C 17,2 C 13,3 C 84 % 1016,7 hPa 0,0 l/m 0 min 0 min 0 W/m 6,4 km/h (2 Bft) 95,74 %
17.07.2023 02:00 18,1 C 17,2 C 13,3 C 84 % 1016,8 hPa 0,0 l/m 0 min 0 min 0 W/m 6,4 km/h (2 Bft) 97,83 %
17.07.2023 02:02 18,1 C 17,2 C 13,9 C 84 % 1016,7 hPa 0,0 l/m 0 min 0 min 0 W/m 9,7 km/h (2 Bft) 96,61 %
17.07.2023 02:04 18,1 C 17,2 C 13,9 C 85 % 1016,8 hPa 0,0 l/m 0 min 0 min 0 W/m 3,2 km/h (1 Bft) 100,00 %
17.07.2023 02:06 18,1 C 17,2 C 13,9 C 85 % 1016,8 hPa 0,0 l/m 0 min 0 min 0 W/m 6,4 km/h (2 Bft) 96,61 %
17.07.2023 02:08 18,1 C 17,2 C 13,9 C 85 % 1016,9 hPa 0,0 l/m 0 min 0 min 0 W/m 3,2 km/h (1 Bft) 95,74 %
17.07.2023 02:10 18,1 C 17,2 C 13,9 C 85 % 1016,9 hPa 0,0 l/m 0 min 0 min 0 W/m 3,2 km/h (1 Bft) 97,14 %
17.07.2023 02:12 18,1 C 17,2 C 13,9 C 85 % 1016,5 hPa 0,0 l/m 0 min 0 min 0 W/m 6,4 km/h (2 Bft) 94,83 %
17.07.2023 02:14 18,1 C 17,2 C 13,9 C 85 % 1016,4 hPa 0,0 l/m 0 min 2 min 0 W/m 3,2 km/h (1 Bft) 97,14 %
17.07.2023 02:16 18,0 C 17,2 C 13,3 C 85 % 1016,6 hPa 0,0 l/m 0 min 2 min 0 W/m 6,4 km/h (2 Bft) 97,87 %
17.07.2023 02:18 18,0 C 17,2 C 13,3 C 85 % 1016,5 hPa 0,0 l/m 0 min 2 min 0 W/m 9,7 km/h (2 Bft) 97,87 %
17.07.2023 02:20 18,0 C 16,7 C 13,3 C 85 % 1016,4 hPa 0,0 l/m 0 min 0 min 0 W/m 3,2 km/h (1 Bft) 93,62 %
17.07.2023 02:22 18,0 C 16,7 C 12,8 C 85 % 1016,5 hPa 0,0 l/m 0 min 0 min 0 W/m 3,2 km/h (1 Bft) 93,62 %
17.07.2023 02:24 17,9 C 16,7 C 12,8 C 85 % 1016,4 hPa 0,0 l/m 0 min 0 min 0 W/m 0,0 km/h (0 Bft) 95,74 %
17.07.2023 02:26 17,9 C 16,7 C 12,8 C 86 % 1016,5 hPa 0,0 l/m 0 min 0 min 0 W/m 3,2 km/h (1 Bft) 95,74 %
17.07.2023 02:28 17,9 C 16,7 C 12,8 C 86 % 1016,4 hPa 0,0 l/m 0 min 0 min 0 W/m 3,2 km/h (1 Bft) 93,48 %
17.07.2023 02:30 17,9 C 16,7 C 12,8 C 86 % 1016,5 hPa 0,2 l/m 0 min 0 min 0 W/m 3,2 km/h (1 Bft) 95,74 %
17.07.2023 02:32 17,9 C 16,7 C 12,8 C 86 % 1016,5 hPa 0,0 l/m 0 min 0 min 0 W/m 3,2 km/h (1 Bft) 95,74 %
17.07.2023 02:34 17,9 C 16,7 C 12,8 C 86 % 1016,5 hPa 0,0 l/m 0 min 0 min 0 W/m 0,0 km/h (0 Bft) 91,67 %
17.07.2023 02:36 17,9 C 16,7 C 13,3 C 86 % 1016,5 hPa 0,0 l/m 0 min 0 min 0 W/m 3,2 km/h (1 Bft) 95,74 %
17.07.2023 02:38 17,9 C 16,7 C 13,3 C 87 % 1016,6 hPa 0,0 l/m 0 min 0 min 0 W/m 3,2 km/h (1 Bft) 93,62 %
17.07.2023 02:40 17,8 C 16,7 C 13,3 C 87 % 1016,6 hPa 0,0 l/m 0 min 0 min 0 W/m 3,2 km/h (1 Bft) 91,30 %
17.07.2023 02:42 17,8 C 16,7 C 13,3 C 87 % 1016,6 hPa 0,0 l/m 0 min 0 min 0 W/m 6,4 km/h (2 Bft) 94,00 %
17.07.2023 02:44 17,8 C 16,7 C 13,3 C 87 % 1016,6 hPa 0,0 l/m 0 min 0 min 0 W/m 3,2 km/h (1 Bft) 97,96 %
17.07.2023 02:46 17,8 C 16,7 C 13,3 C 87 % 1016,6 hPa 0,0 l/m 0 min 0 min 0 W/m 9,7 km/h (2 Bft) 97,83 %
17.07.2023 02:48 17,7 C 16,7 C 13,3 C 87 % 1016,6 hPa 0,0 l/m 0 min 0 min 0 W/m 16,1 km/h (3 Bft) 97,87 %
17.07.2023 02:50 17,7 C 16,7 C 13,3 C 87 % 1016,6 hPa 0,0 l/m 0 min 0 min 0 W/m 6,4 km/h (2 Bft) 97,87 %
17.07.2023 02:52 17,6 C 16,7 C 13,3 C 87 % 1016,6 hPa 0,0 l/m 0 min 0 min 0 W/m 6,4 km/h (2 Bft) 97,87 %
17.07.2023 02:54 17,6 C 16,7 C 13,3 C 87 % 1016,7 hPa 0,0 l/m 0 min 0 min 0 W/m 9,7 km/h (2 Bft) 100,00 %
17.07.2023 02:56 17,6 C 16,7 C 13,3 C 87 % 1016,6 hPa 0,0 l/m 0 min 0 min 0 W/m 3,2 km/h (1 Bft) 97,87 %
17.07.2023 02:58 17,6 C 16,7 C 13,3 C 87 % 1016,7 hPa 0,0 l/m 0 min 0 min 0 W/m 6,4 km/h (2 Bft) 97,87 %
17.07.2023 03:00 17,6 C 16,7 C 13,3 C 87 % 1016,8 hPa 0,0 l/m 0 min 0 min 0 W/m 3,2 km/h (1 Bft) 100,00 %
17.07.2023 03:02 17,5 C 16,7 C 13,3 C 86 % 1016,9 hPa 0,0 l/m 0 min 0 min 0 W/m 6,4 km/h (2 Bft) 97,83 %
17.07.2023 03:04 17,5 C 16,7 C 13,3 C 87 % 1016,9 hPa 0,0 l/m 0 min 0 min 0 W/m 9,7 km/h (2 Bft) 100,00 %
17.07.2023 03:06 17,4 C 16,7 C 13,3 C 87 % 1017,0 hPa 0,0 l/m 0 min 0 min 0 W/m 6,4 km/h (2 Bft) 97,83 %
17.07.2023 03:08 17,5 C 16,7 C 13,3 C 87 % 1016,9 hPa 0,0 l/m 0 min 0 min 0 W/m 12,9 km/h (3 Bft) 95,74 %
17.07.2023 03:10 17,4 C 16,7 C 13,3 C 87 % 1017,1 hPa 0,0 l/m 0 min 0 min 0 W/m 19,3 km/h (3 Bft) 95,74 %
17.07.2023 03:12 17,4 C 16,7 C 13,3 C 86 % 1017,1 hPa 0,0 l/m 0 min 0 min 0 W/m 16,1 km/h (3 Bft) 95,74 %
17.07.2023 03:14 17,3 C 16,7 C 13,3 C 86 % 1017,1 hPa 0,0 l/m 0 min 0 min 0 W/m 12,9 km/h (3 Bft) 97,87 %
17.07.2023 03:16 17,3 C 16,7 C 13,3 C 85 % 1017,1 hPa 0,0 l/m 0 min 0 min 0 W/m 22,5 km/h (4 Bft) 95,74 %
17.07.2023 03:18 17,3 C 16,7 C 12,8 C 84 % 1017,1 hPa 0,0 l/m 0 min 2 min 0 W/m 16,1 km/h (3 Bft) 97,87 %
17.07.2023 03:20 17,3 C 16,7 C 12,2 C 85 % 1017,1 hPa 0,0 l/m 0 min 2 min 0 W/m 22,5 km/h (4 Bft) 97,83 %
17.07.2023 03:22 17,2 C 16,1 C 12,2 C 85 % 1017,0 hPa 0,0 l/m 0 min 2 min 0 W/m 6,4 km/h (2 Bft) 97,87 %
17.07.2023 03:24 17,2 C 16,1 C 11,7 C 85 % 1016,9 hPa 0,0 l/m 0 min 2 min 0 W/m 6,4 km/h (2 Bft) 97,87 %
17.07.2023 03:26 17,1 C 16,1 C 11,7 C 86 % 1016,7 hPa 0,2 l/m 0 min 2 min 0 W/m 6,4 km/h (2 Bft) 97,87 %
17.07.2023 03:28 17,1 C 15,6 C 11,7 C 86 % 1016,7 hPa 0,0 l/m 0 min 2 min 0 W/m 12,9 km/h (3 Bft) 95,83 %
17.07.2023 03:30 17,0 C 15,6 C 11,7 C 86 % 1016,7 hPa 0,0 l/m 0 min 2 min 0 W/m 6,4 km/h (2 Bft) 97,87 %
17.07.2023 03:32 16,9 C 15,6 C 11,7 C 87 % 1016,7 hPa 0,0 l/m 0 min 2 min 0 W/m 6,4 km/h (2 Bft) 95,74 %
17.07.2023 03:34 16,9 C 15,6 C 11,1 C 87 % 1016,7 hPa 0,0 l/m 0 min 2 min 0 W/m 3,2 km/h (1 Bft) 97,83 %
17.07.2023 03:36 16,9 C 15,6 C 11,1 C 88 % 1016,7 hPa 0,0 l/m 0 min 2 min 0 W/m 6,4 km/h (2 Bft) 97,87 %
17.07.2023 03:38 16,8 C 15,6 C 11,1 C 88 % 1016,6 hPa 0,0 l/m 0 min 0 min 0 W/m 6,4 km/h (2 Bft) 95,74 %
17.07.2023 03:40 16,8 C 15,6 C 11,1 C 88 % 1016,7 hPa 0,0 l/m 0 min 0 min 0 W/m 3,2 km/h (1 Bft) 97,87 %
17.07.2023 03:42 16,8 C 15,6 C 11,1 C 88 % 1016,7 hPa 0,0 l/m 0 min 0 min 0 W/m 3,2 km/h (1 Bft) 97,87 %
17.07.2023 03:44 16,7 C 15,6 C 11,1 C 88 % 1016,7 hPa 0,0 l/m 0 min 0 min 0 W/m 6,4 km/h (2 Bft) 97,87 %
17.07.2023 03:46 16,7 C 15,6 C 11,1 C 89 % 1016,8 hPa 0,0 l/m 0 min 0 min 0 W/m 3,2 km/h (1 Bft) 97,87 %
17.07.2023 03:48 16,7 C 15,6 C 11,1 C 89 % 1016,9 hPa 0,0 l/m 0 min 0 min 0 W/m 6,4 km/h (2 Bft) 97,83 %
17.07.2023 03:50 16,6 C 15,6 C 11,1 C 89 % 1016,9 hPa 0,0 l/m 0 min 0 min 0 W/m 3,2 km/h (1 Bft) 97,87 %
17.07.2023 03:52 16,6 C 15,6 C 11,1 C 89 % 1016,9 hPa 0,0 l/m 0 min 0 min 0 W/m 3,2 km/h (1 Bft) 97,87 %
17.07.2023 03:54 16,6 C 15,6 C 11,1 C 89 % 1016,8 hPa 0,0 l/m 0 min 0 min 0 W/m 3,2 km/h (1 Bft) 100,00 %
17.07.2023 03:56 16,6 C 15,6 C 11,1 C 89 % 1016,8 hPa 0,0 l/m 0 min 0 min 0 W/m 3,2 km/h (1 Bft) 100,00 %
17.07.2023 03:58 16,5 C 15,6 C 11,7 C 90 % 1016,7 hPa 0,0 l/m 0 min 0 min 0 W/m 6,4 km/h (2 Bft) 100,00 %
17.07.2023 04:00 16,4 C 15,6 C 11,7 C 90 % 1016,7 hPa 0,0 l/m 0 min 0 min 0 W/m 3,2 km/h (1 Bft) 100,00 %
17.07.2023 04:02 16,4 C 15,6 C 11,7 C 90 % 1016,8 hPa 0,0 l/m 0 min 0 min 0 W/m 6,4 km/h (2 Bft) 95,24 %
17.07.2023 04:04 16,4 C 15,6 C 11,7 C 90 % 1016,7 hPa 0,0 l/m 0 min 0 min 0 W/m 6,4 km/h (2 Bft) 96,36 %
17.07.2023 04:06 16,3 C 15,6 C 11,7 C 90 % 1016,9 hPa 0,0 l/m 0 min 0 min 0 W/m 16,1 km/h (3 Bft) 100,00 %
17.07.2023 04:08 16,2 C 15,6 C 11,7 C 90 % 1016,9 hPa 0,0 l/m 0 min 0 min 0 W/m 6,4 km/h (2 Bft) 97,87 %
17.07.2023 04:10 16,2 C 15,6 C 11,7 C 90 % 1016,9 hPa 0,0 l/m 0 min 0 min 0 W/m 6,4 km/h (2 Bft) 100,00 %
17.07.2023 04:12 16,2 C 15,6 C 11,7 C 90 % 1016,9 hPa 0,0 l/m 0 min 0 min 0 W/m 12,9 km/h (3 Bft) 80,00 %
17.07.2023 04:14 16,2 C 15,6 C 11,7 C 90 % 1016,8 hPa 0,0 l/m 0 min 0 min 0 W/m 9,7 km/h (2 Bft) 97,83 %
17.07.2023 04:16 16,1 C 15,6 C 11,7 C 90 % 1016,8 hPa 0,0 l/m 0 min 0 min 0 W/m 9,7 km/h (2 Bft) 97,87 %
17.07.2023 04:18 16,1 C 15,6 C 11,7 C 90 % 1016,9 hPa 0,0 l/m 0 min 0 min 0 W/m 6,4 km/h (2 Bft) 97,87 %
17.07.2023 04:20 16,1 C 15,6 C 11,7 C 90 % 1016,9 hPa 0,0 l/m 0 min 0 min 0 W/m 9,7 km/h (2 Bft) 97,87 %
17.07.2023 04:22 16,1 C 15,6 C 11,7 C 90 % 1016,9 hPa 0,0 l/m 0 min 0 min 0 W/m 6,4 km/h (2 Bft) 97,87 %
17.07.2023 04:24 16,1 C 15,6 C 11,7 C 90 % 1016,8 hPa 0,0 l/m 0 min 0 min 0 W/m 6,4 km/h (2 Bft) 97,87 %
17.07.2023 04:26 16,1 C 15,6 C 11,7 C 90 % 1016,8 hPa 0,0 l/m 0 min 0 min 0 W/m 6,4 km/h (2 Bft) 97,87 %
17.07.2023 04:28 16,1 C 15,6 C 11,7 C 90 % 1016,7 hPa 0,0 l/m 0 min 0 min 0 W/m 6,4 km/h (2 Bft) 97,83 %
17.07.2023 04:30 16,1 C 15,6 C 11,7 C 91 % 1016,7 hPa 0,0 l/m 0 min 0 min 0 W/m 3,2 km/h (1 Bft) 97,87 %
17.07.2023 04:32 16,2 C 15,6 C 11,7 C 91 % 1016,7 hPa 0,0 l/m 0 min 0 min 0 W/m 3,2 km/h (1 Bft) 100,00 %
17.07.2023 04:34 16,1 C 15,6 C 11,7 C 91 % 1016,8 hPa 0,0 l/m 0 min 0 min 0 W/m 9,7 km/h (2 Bft) 100,00 %
17.07.2023 04:36 16,1 C 15,6 C 11,7 C 90 % 1016,8 hPa 0,0 l/m 0 min 0 min 0 W/m 9,7 km/h (2 Bft) 100,00 %
17.07.2023 04:38 16,1 C 15,6 C 12,2 C 91 % 1016,8 hPa 0,0 l/m 0 min 0 min 0 W/m 6,4 km/h (2 Bft) 100,00 %
17.07.2023 04:40 16,1 C 15,6 C 12,2 C 91 % 1016,9 hPa 0,0 l/m 0 min 0 min 0 W/m 9,7 km/h (2 Bft) 100,00 %
17.07.2023 04:42 16,1 C 15,6 C 12,2 C 91 % 1016,9 hPa 0,0 l/m 0 min 0 min 0 W/m 9,7 km/h (2 Bft) 100,00 %
17.07.2023 04:44 16,1 C 15,6 C 12,2 C 91 % 1017,0 hPa 0,0 l/m 0 min 0 min 0 W/m 12,9 km/h (3 Bft) 100,00 %
17.07.2023 04:46 16,1 C 15,6 C 12,2 C 90 % 1017,0 hPa 0,0 l/m 0 min 0 min 0 W/m 16,1 km/h (3 Bft) 95,74 %
17.07.2023 04:48 16,1 C 15,6 C 12,2 C 90 % 1017,0 hPa 0,0 l/m 0 min 0 min 0 W/m 16,1 km/h (3 Bft) 97,87 %
17.07.2023 04:50 16,1 C 15,6 C 12,2 C 90 % 1017,0 hPa 0,0 l/m 0 min 0 min 0 W/m 9,7 km/h (2 Bft) 100,00 %
17.07.2023 04:52 16,0 C 15,0 C 12,2 C 90 % 1017,0 hPa 0,0 l/m 0 min 0 min 0 W/m 9,7 km/h (2 Bft) 97,87 %
17.07.2023 04:54 16,0 C 15,0 C 11,7 C 90 % 1017,0 hPa 0,0 l/m 0 min 0 min 0 W/m 12,9 km/h (3 Bft) 100,00 %
17.07.2023 04:56 16,0 C 15,0 C 11,7 C 90 % 1017,0 hPa 0,0 l/m 0 min 0 min 0 W/m 9,7 km/h (2 Bft) 97,83 %
17.07.2023 04:58 15,9 C 15,0 C 12,2 C 90 % 1016,9 hPa 0,0 l/m 0 min 0 min 0 W/m 6,4 km/h (2 Bft) 100,00 %
17.07.2023 05:00 15,9 C 15,0 C 11,7 C 90 % 1016,9 hPa 0,0 l/m 0 min 0 min 0 W/m 6,4 km/h (2 Bft) 93,62 %
17.07.2023 05:02 15,9 C 15,0 C 11,7 C 90 % 1017,0 hPa 0,0 l/m 0 min 0 min 0 W/m 6,4 km/h (2 Bft) 95,74 %
17.07.2023 05:04 15,9 C 15,0 C 12,2 C 90 % 1017,0 hPa 0,0 l/m 0 min 0 min 0 W/m 9,7 km/h (2 Bft) 97,87 %
17.07.2023 05:06 15,9 C 15,0 C 12,2 C 90 % 1017,0 hPa 0,0 l/m 0 min 0 min 0 W/m 9,7 km/h (2 Bft) 97,87 %
17.07.2023 05:08 15,9 C 15,0 C 12,2 C 90 % 1017,1 hPa 0,0 l/m 0 min 0 min 0 W/m 6,4 km/h (2 Bft) 97,83 %
17.07.2023 05:10 15,9 C 15,0 C 12,2 C 90 % 1017,1 hPa 0,0 l/m 0 min 0 min 0 W/m 6,4 km/h (2 Bft) 97,87 %
17.07.2023 05:12 15,9 C 15,0 C 12,2 C 90 % 1017,1 hPa 0,0 l/m 0 min 0 min 0 W/m 6,4 km/h (2 Bft) 95,74 %
17.07.2023 05:14 15,8 C 15,0 C 11,7 C 90 % 1017,1 hPa 0,0 l/m 0 min 0 min 0 W/m 9,7 km/h (2 Bft) 95,74 %
17.07.2023 05:16 15,8 C 15,0 C 11,7 C 90 % 1017,1 hPa 0,0 l/m 0 min 0 min 0 W/m 3,2 km/h (1 Bft) 97,87 %
17.07.2023 05:18 15,8 C 15,0 C 11,7 C 90 % 1017,2 hPa 0,0 l/m 0 min 0 min 0 W/m 6,4 km/h (2 Bft) 97,87 %
17.07.2023 05:20 15,8 C 15,0 C 11,7 C 90 % 1017,1 hPa 0,0 l/m 0 min 0 min 0 W/m 6,4 km/h (2 Bft) 97,87 %
17.07.2023 05:22 15,8 C 15,0 C 11,7 C 90 % 1017,2 hPa 0,0 l/m 0 min 0 min 0 W/m 3,2 km/h (1 Bft) 97,87 %
17.07.2023 05:24 15,8 C 15,0 C 11,7 C 90 % 1017,2 hPa 0,0 l/m 0 min 0 min 0 W/m 3,2 km/h (1 Bft) 97,83 %
17.07.2023 05:26 15,7 C 15,0 C 11,7 C 90 % 1017,2 hPa 0,0 l/m 0 min 0 min 0 W/m 3,2 km/h (1 Bft) 97,87 %
17.07.2023 05:28 15,7 C 14,4 C 11,7 C 90 % 1017,2 hPa 0,0 l/m 0 min 0 min 0 W/m 3,2 km/h (1 Bft) 97,87 %
17.07.2023 05:30 15,7 C 14,4 C 11,7 C 90 % 1017,2 hPa 0,0 l/m 0 min 0 min 0 W/m 3,2 km/h (1 Bft) 95,74 %
17.07.2023 05:32 15,7 C 14,4 C 11,7 C 90 % 1017,3 hPa 0,0 l/m 0 min 0 min 0 W/m 6,4 km/h (2 Bft) 95,74 %
17.07.2023 05:34 15,7 C 14,4 C 11,7 C 90 % 1017,3 hPa 0,0 l/m 0 min 0 min 0 W/m 3,2 km/h (1 Bft) 97,87 %
17.07.2023 05:36 15,7 C 14,4 C 11,7 C 90 % 1017,2 hPa 0,0 l/m 0 min 0 min 0 W/m 3,2 km/h (1 Bft) 97,87 %
17.07.2023 05:38 15,6 C 14,4 C 11,7 C 90 % 1017,2 hPa 0,0 l/m 0 min 0 min 0 W/m 3,2 km/h (1 Bft) 93,48 %
17.07.2023 05:40 15,6 C 14,4 C 11,7 C 90 % 1017,3 hPa 0,0 l/m 0 min 0 min 0 W/m 9,7 km/h (2 Bft) 97,87 %
17.07.2023 05:42 15,6 C 14,4 C 11,7 C 90 % 1017,2 hPa 0,0 l/m 0 min 0 min 0 W/m 9,7 km/h (2 Bft) 95,74 %
17.07.2023 05:44 15,6 C 14,4 C 11,7 C 90 % 1017,3 hPa 0,0 l/m 0 min 0 min 0 W/m 16,1 km/h (3 Bft) 95,74 %
17.07.2023 05:46 15,6 C 15,0 C 11,7 C 90 % 1017,3 hPa 0,0 l/m 0 min 0 min 4 W/m 12,9 km/h (3 Bft) 91,49 %
17.07.2023 05:48 15,6 C 15,0 C 11,7 C 90 % 1017,3 hPa 0,0 l/m 0 min 0 min 5 W/m 12,9 km/h (3 Bft) 93,62 %
17.07.2023 05:50 15,6 C 14,4 C 11,7 C 90 % 1017,3 hPa 0,0 l/m 0 min 0 min 5 W/m 6,4 km/h (2 Bft) 93,62 %
17.07.2023 05:52 15,6 C 14,4 C 11,7 C 90 % 1017,3 hPa 0,0 l/m 0 min 0 min 6 W/m 6,4 km/h (2 Bft) 91,30 %
17.07.2023 05:54 15,5 C 14,4 C 11,7 C 90 % 1017,2 hPa 0,0 l/m 0 min 0 min 7 W/m 6,4 km/h (2 Bft) 93,62 %
17.07.2023 05:56 15,5 C 14,4 C 11,7 C 90 % 1017,3 hPa 0,0 l/m 0 min 0 min 7 W/m 3,2 km/h (1 Bft) 93,62 %
17.07.2023 05:58 15,5 C 14,4 C 11,7 C 90 % 1017,3 hPa 0,0 l/m 0 min 0 min 8 W/m 6,4 km/h (2 Bft) 93,62 %
17.07.2023 06:00 15,5 C 14,4 C 11,7 C 90 % 1017,3 hPa 0,0 l/m 0 min 0 min 9 W/m 6,4 km/h (2 Bft) 95,74 %
17.07.2023 06:02 15,5 C 14,4 C 11,7 C 90 % 1017,4 hPa 0,0 l/m 0 min 0 min 9 W/m 3,2 km/h (1 Bft) 95,74 %
17.07.2023 06:04 15,5 C 14,4 C 11,7 C 90 % 1017,4 hPa 0,0 l/m 0 min 0 min 11 W/m 6,4 km/h (2 Bft) 92,68 %
17.07.2023 06:07 15,4 C 14,4 C 11,7 C 90 % 1017,4 hPa 0,0 l/m 0 min 0 min 11 W/m 3,2 km/h (1 Bft) 93,83 %
17.07.2023 06:08 15,5 C 14,4 C 11,7 C 90 % 1017,4 hPa 0,0 l/m 0 min 0 min 12 W/m 3,2 km/h (1 Bft) 100,00 %
17.07.2023 06:12 15,4 C 14,4 C 11,7 C 91 % 1017,5 hPa 0,0 l/m 0 min 0 min 12 W/m 6,4 km/h (2 Bft) 94,64 %
17.07.2023 06:14 15,5 C 15,0 C 11,7 C 91 % 1017,4 hPa 0,0 l/m 0 min 0 min 12 W/m 6,4 km/h (2 Bft) 97,87 %
17.07.2023 06:16 15,5 C 15,0 C 11,7 C 91 % 1017,4 hPa 0,0 l/m 0 min 0 min 14 W/m 6,4 km/h (2 Bft) 97,87 %
17.07.2023 06:18 15,4 C 15,0 C 11,7 C 91 % 1017,5 hPa 0,0 l/m 0 min 0 min 14 W/m 6,4 km/h (2 Bft) 97,83 %
17.07.2023 06:20 15,4 C 15,0 C 11,7 C 91 % 1017,5 hPa 0,0 l/m 0 min 0 min 14 W/m 12,9 km/h (3 Bft) 97,87 %
17.07.2023 06:22 15,4 C 15,0 C 11,7 C 91 % 1017,5 hPa 0,0 l/m 0 min 0 min 16 W/m 6,4 km/h (2 Bft) 97,87 %
17.07.2023 06:24 15,5 C 15,0 C 11,7 C 91 % 1017,5 hPa 0,0 l/m 0 min 0 min 16 W/m 3,2 km/h (1 Bft) 97,87 %
17.07.2023 06:26 15,5 C 15,0 C 11,7 C 91 % 1017,5 hPa 0,0 l/m 0 min 0 min 17 W/m 9,7 km/h (2 Bft) 97,87 %
17.07.2023 06:28 15,4 C 15,0 C 11,7 C 90 % 1017,5 hPa 0,0 l/m 0 min 0 min 18 W/m 6,4 km/h (2 Bft) 100,00 %
17.07.2023 06:30 15,4 C 15,0 C 11,7 C 90 % 1017,6 hPa 0,0 l/m 0 min 0 min 19 W/m 12,9 km/h (3 Bft) 97,87 %
17.07.2023 06:32 15,5 C 15,0 C 11,7 C 91 % 1017,6 hPa 0,0 l/m 0 min 0 min 20 W/m 12,9 km/h (3 Bft) 100,00 %
17.07.2023 06:34 15,5 C 15,0 C 11,7 C 90 % 1017,6 hPa 0,0 l/m 0 min 0 min 21 W/m 12,9 km/h (3 Bft) 100,00 %
17.07.2023 06:36 15,5 C 15,0 C 11,7 C 91 % 1017,6 hPa 0,0 l/m 0 min 0 min 21 W/m 6,4 km/h (2 Bft) 100,00 %
17.07.2023 06:38 15,5 C 15,0 C 11,7 C 90 % 1017,7 hPa 0,0 l/m 0 min 0 min 22 W/m 6,4 km/h (2 Bft) 100,00 %
17.07.2023 06:40 15,6 C 15,0 C 11,7 C 90 % 1017,7 hPa 0,0 l/m 0 min 0 min 23 W/m 12,9 km/h (3 Bft) 100,00 %
17.07.2023 06:42 15,6 C 15,0 C 11,7 C 90 % 1017,7 hPa 0,0 l/m 0 min 0 min 25 W/m 3,2 km/h (1 Bft) 100,00 %
17.07.2023 06:44 15,6 C 15,0 C 11,7 C 90 % 1017,7 hPa 0,0 l/m 0 min 0 min 25 W/m 6,4 km/h (2 Bft) 100,00 %
17.07.2023 06:46 15,6 C 15,0 C 11,7 C 90 % 1017,7 hPa 0,0 l/m 0 min 0 min 25 W/m 6,4 km/h (2 Bft) 100,00 %
17.07.2023 06:48 15,6 C 15,0 C 11,7 C 90 % 1017,8 hPa 0,0 l/m 0 min 0 min 25 W/m 9,7 km/h (2 Bft) 100,00 %
17.07.2023 06:50 15,6 C 15,0 C 11,7 C 91 % 1017,8 hPa 0,0 l/m 0 min 0 min 26 W/m 6,4 km/h (2 Bft) 100,00 %
17.07.2023 06:52 15,6 C 15,0 C 11,7 C 91 % 1017,8 hPa 0,0 l/m 0 min 0 min 26 W/m 6,4 km/h (2 Bft) 100,00 %
17.07.2023 06:54 15,6 C 15,0 C 11,7 C 91 % 1017,8 hPa 0,0 l/m 0 min 0 min 25 W/m 6,4 km/h (2 Bft) 100,00 %
17.07.2023 06:56 15,7 C 15,0 C 11,7 C 90 % 1017,8 hPa 0,0 l/m 0 min 0 min 25 W/m 6,4 km/h (2 Bft) 100,00 %
17.07.2023 06:58 15,7 C 15,0 C 11,7 C 90 % 1017,9 hPa 0,0 l/m 0 min 0 min 25 W/m 3,2 km/h (1 Bft) 100,00 %
17.07.2023 07:00 15,7 C 15,0 C 12,2 C 90 % 1017,9 hPa 0,0 l/m 0 min 0 min 26 W/m 6,4 km/h (2 Bft) 100,00 %
17.07.2023 07:02 15,7 C 15,0 C 12,2 C 90 % 1018,0 hPa 0,0 l/m 0 min 0 min 26 W/m 6,4 km/h (2 Bft) 97,87 %
17.07.2023 07:04 15,7 C 15,0 C 12,2 C 90 % 1017,9 hPa 0,0 l/m 0 min 0 min 26 W/m 3,2 km/h (1 Bft) 100,00 %
17.07.2023 07:06 15,7 C 15,0 C 12,2 C 90 % 1017,9 hPa 0,0 l/m 0 min 0 min 27 W/m 12,9 km/h (3 Bft) 100,00 %
17.07.2023 07:08 15,7 C 15,0 C 12,2 C 90 % 1017,9 hPa 0,0 l/m 0 min 0 min 28 W/m 9,7 km/h (2 Bft) 100,00 %
17.07.2023 07:10 15,7 C 15,0 C 12,2 C 90 % 1017,9 hPa 0,0 l/m 0 min 0 min 28 W/m 6,4 km/h (2 Bft) 100,00 %
17.07.2023 07:12 15,7 C 15,0 C 12,2 C 90 % 1017,9 hPa 0,0 l/m 0 min 0 min 28 W/m 6,4 km/h (2 Bft) 100,00 %
17.07.2023 07:14 15,7 C 15,6 C 12,2 C 90 % 1017,9 hPa 0,0 l/m 0 min 0 min 29 W/m 16,1 km/h (3 Bft) 97,87 %
17.07.2023 07:16 15,7 C 15,6 C 12,2 C 90 % 1017,9 hPa 0,0 l/m 0 min 0 min 30 W/m 6,4 km/h (2 Bft) 100,00 %
17.07.2023 07:18 15,7 C 15,0 C 12,2 C 90 % 1017,9 hPa 0,0 l/m 0 min 0 min 31 W/m 3,2 km/h (1 Bft) 100,00 %
17.07.2023 07:20 15,8 C 15,6 C 12,2 C 90 % 1018,0 hPa 0,0 l/m 0 min 0 min 32 W/m 6,4 km/h (2 Bft) 100,00 %
17.07.2023 07:22 15,8 C 15,6 C 12,2 C 90 % 1017,9 hPa 0,0 l/m 0 min 0 min 32 W/m 16,1 km/h (3 Bft) 95,74 %
17.07.2023 07:24 15,8 C 15,6 C 12,2 C 90 % 1018,0 hPa 0,0 l/m 0 min 0 min 33 W/m 12,9 km/h (3 Bft) 100,00 %
17.07.2023 07:26 15,8 C 15,6 C 12,2 C 89 % 1018,0 hPa 0,0 l/m 0 min 0 min 35 W/m 6,4 km/h (2 Bft) 100,00 %
17.07.2023 07:28 15,8 C 15,6 C 12,2 C 89 % 1018,0 hPa 0,0 l/m 0 min 0 min 35 W/m 6,4 km/h (2 Bft) 100,00 %
17.07.2023 07:30 15,9 C 15,6 C 12,2 C 89 % 1018,0 hPa 0,0 l/m 0 min 0 min 36 W/m 12,9 km/h (3 Bft) 97,87 %
17.07.2023 07:32 15,9 C 15,6 C 12,2 C 89 % 1018,1 hPa 0,0 l/m 0 min 0 min 37 W/m 12,9 km/h (3 Bft) 97,87 %
17.07.2023 07:34 15,9 C 15,6 C 12,2 C 89 % 1018,1 hPa 0,0 l/m 0 min 0 min 37 W/m 9,7 km/h (2 Bft) 97,87 %
17.07.2023 07:36 15,9 C 15,6 C 12,2 C 89 % 1018,2 hPa 0,0 l/m 0 min 0 min 37 W/m 9,7 km/h (2 Bft) 95,74 %
17.07.2023 07:38 16,0 C 15,6 C 12,2 C 89 % 1018,2 hPa 0,0 l/m 0 min 0 min 39 W/m 9,7 km/h (2 Bft) 97,87 %
17.07.2023 07:40 16,1 C 15,6 C 12,2 C 89 % 1018,2 hPa 0,0 l/m 0 min 0 min 39 W/m 16,1 km/h (3 Bft) 97,83 %
17.07.2023 07:42 16,1 C 15,6 C 12,2 C 89 % 1018,2 hPa 0,0 l/m 0 min 0 min 40 W/m 19,3 km/h (3 Bft) 97,87 %
17.07.2023 07:44 16,1 C 15,6 C 12,2 C 88 % 1018,2 hPa 0,0 l/m 0 min 0 min 40 W/m 16,1 km/h (3 Bft) 93,62 %
17.07.2023 07:46 16,1 C 15,6 C 12,2 C 88 % 1018,2 hPa 0,0 l/m 0 min 0 min 42 W/m 9,7 km/h (2 Bft) 97,87 %
17.07.2023 07:48 16,1 C 15,6 C 12,8 C 88 % 1018,2 hPa 0,0 l/m 0 min 0 min 43 W/m 22,5 km/h (4 Bft) 95,74 %
17.07.2023 07:50 16,2 C 16,1 C 12,8 C 88 % 1018,2 hPa 0,0 l/m 0 min 0 min 44 W/m 12,9 km/h (3 Bft) 97,87 %
17.07.2023 07:52 16,2 C 16,1 C 12,8 C 88 % 1018,2 hPa 0,0 l/m 0 min 0 min 46 W/m 19,3 km/h (3 Bft) 97,83 %
17.07.2023 07:54 16,3 C 16,1 C 12,8 C 88 % 1018,3 hPa 0,0 l/m 0 min 0 min 46 W/m 12,9 km/h (3 Bft) 100,00 %
17.07.2023 07:56 16,3 C 16,1 C 12,8 C 87 % 1018,2 hPa 0,0 l/m 0 min 0 min 47 W/m 16,1 km/h (3 Bft) 97,87 %
17.07.2023 07:58 16,3 C 16,1 C 12,8 C 87 % 1018,3 hPa 0,0 l/m 0 min 0 min 47 W/m 16,1 km/h (3 Bft) 97,87 %
17.07.2023 08:00 16,4 C 16,1 C 12,8 C 87 % 1018,3 hPa 0,0 l/m 0 min 0 min 49 W/m 16,1 km/h (3 Bft) 100,00 %
17.07.2023 08:02 16,4 C 16,1 C 12,8 C 87 % 1018,3 hPa 0,0 l/m 0 min 0 min 113 W/m 12,9 km/h (3 Bft) 100,00 %
17.07.2023 08:04 16,4 C 16,1 C 12,8 C 86 % 1018,3 hPa 0,0 l/m 2 min 0 min 248 W/m 16,1 km/h (3 Bft) 97,87 %
17.07.2023 08:06 16,5 C 16,1 C 12,8 C 86 % 1018,3 hPa 0,0 l/m 2 min 0 min 276 W/m 12,9 km/h (3 Bft) 100,00 %
17.07.2023 08:08 16,6 C 16,1 C 12,8 C 86 % 1018,4 hPa 0,0 l/m 2 min 0 min 280 W/m 16,1 km/h (3 Bft) 100,00 %
17.07.2023 08:10 16,6 C 16,7 C 12,8 C 86 % 1018,4 hPa 0,0 l/m 2 min 0 min 285 W/m 25,7 km/h (4 Bft) 97,87 %
17.07.2023 08:12 16,7 C 17,2 C 12,8 C 85 % 1018,4 hPa 0,0 l/m 2 min 0 min 291 W/m 19,3 km/h (3 Bft) 100,00 %
17.07.2023 08:14 16,7 C 17,8 C 12,8 C 85 % 1018,4 hPa 0,0 l/m 2 min 0 min 298 W/m 12,9 km/h (3 Bft) 97,87 %
17.07.2023 08:16 16,8 C 18,9 C 12,8 C 85 % 1018,5 hPa 0,0 l/m 2 min 0 min 304 W/m 16,1 km/h (3 Bft) 97,87 %
17.07.2023 08:18 16,8 C 18,9 C 12,8 C 85 % 1018,5 hPa 0,0 l/m 2 min 0 min 308 W/m 12,9 km/h (3 Bft) 95,74 %
17.07.2023 08:20 16,9 C 18,9 C 12,8 C 85 % 1018,5 hPa 0,0 l/m 2 min 0 min 246 W/m 19,3 km/h (3 Bft) 95,65 %
17.07.2023 08:22 16,9 C 19,4 C 12,8 C 85 % 1018,5 hPa 0,0 l/m 2 min 0 min 234 W/m 16,1 km/h (3 Bft) 100,00 %
17.07.2023 08:24 17,1 C 19,4 C 13,3 C 85 % 1018,5 hPa 0,0 l/m 2 min 0 min 193 W/m 19,3 km/h (3 Bft) 97,87 %
17.07.2023 08:26 17,1 C 19,4 C 13,3 C 85 % 1018,6 hPa 0,0 l/m 2 min 0 min 268 W/m 6,4 km/h (2 Bft) 93,62 %
17.07.2023 08:28 17,2 C 20,0 C 13,3 C 85 % 1018,6 hPa 0,0 l/m 2 min 0 min 341 W/m 6,4 km/h (2 Bft) 95,74 %
17.07.2023 08:30 17,3 C 21,1 C 13,3 C 85 % 1018,6 hPa 0,0 l/m 2 min 0 min 348 W/m 12,9 km/h (3 Bft) 97,87 %
17.07.2023 08:32 17,4 C 21,1 C 13,9 C 84 % 1018,6 hPa 0,0 l/m 2 min 0 min 357 W/m 12,9 km/h (3 Bft) 93,62 %
17.07.2023 08:34 17,5 C 21,7 C 13,9 C 84 % 1018,7 hPa 0,0 l/m 2 min 0 min 369 W/m 16,1 km/h (3 Bft) 95,74 %
17.07.2023 08:36 17,6 C 22,2 C 14,4 C 84 % 1018,6 hPa 0,0 l/m 2 min 0 min 375 W/m 12,9 km/h (3 Bft) 95,65 %
17.07.2023 08:38 17,7 C 21,7 C 14,4 C 83 % 1018,6 hPa 0,0 l/m 2 min 0 min 387 W/m 12,9 km/h (3 Bft) 95,74 %
17.07.2023 08:40 17,7 C 22,2 C 15,0 C 83 % 1018,6 hPa 0,0 l/m 2 min 0 min 394 W/m 16,1 km/h (3 Bft) 95,74 %
17.07.2023 08:42 17,8 C 22,2 C 15,0 C 83 % 1018,7 hPa 0,0 l/m 2 min 0 min 402 W/m 16,1 km/h (3 Bft) 93,62 %
17.07.2023 08:44 17,9 C 21,1 C 15,0 C 82 % 1018,7 hPa 0,0 l/m 2 min 0 min 407 W/m 25,7 km/h (4 Bft) 95,74 %
17.07.2023 08:46 17,9 C 21,7 C 15,6 C 82 % 1018,7 hPa 0,0 l/m 2 min 0 min 405 W/m 16,1 km/h (3 Bft) 95,74 %
17.07.2023 08:48 17,9 C 21,1 C 15,6 C 81 % 1018,7 hPa 0,0 l/m 2 min 0 min 424 W/m 12,9 km/h (3 Bft) 95,74 %
17.07.2023 08:50 18,0 C 21,1 C 15,6 C 81 % 1018,7 hPa 0,0 l/m 2 min 0 min 420 W/m 6,4 km/h (2 Bft) 95,65 %
17.07.2023 08:52 18,1 C 20,6 C 15,6 C 81 % 1018,7 hPa 0,0 l/m 0 min 0 min 213 W/m 22,5 km/h (4 Bft) 95,74 %
17.07.2023 08:54 18,1 C 21,1 C 15,6 C 81 % 1018,7 hPa 0,0 l/m 0 min 0 min 213 W/m 12,9 km/h (3 Bft) 95,74 %
17.07.2023 08:56 18,2 C 22,2 C 16,1 C 81 % 1018,8 hPa 0,0 l/m 2 min 0 min 430 W/m 12,9 km/h (3 Bft) 95,74 %
17.07.2023 08:58 18,3 C 23,3 C 16,1 C 81 % 1018,7 hPa 0,0 l/m 2 min 0 min 435 W/m 12,9 km/h (3 Bft) 95,74 %
17.07.2023 09:00 18,3 C 23,9 C 16,7 C 81 % 1018,8 hPa 0,0 l/m 2 min 0 min 449 W/m 12,9 km/h (3 Bft) 97,87 %
17.07.2023 09:02 18,5 C 23,3 C 16,7 C 81 % 1018,8 hPa 0,0 l/m 2 min 0 min 452 W/m 16,1 km/h (3 Bft) 93,62 %
17.07.2023 09:04 18,5 C 23,3 C 16,7 C 80 % 1018,8 hPa 0,0 l/m 2 min 0 min 460 W/m 12,9 km/h (3 Bft) 97,62 %
17.07.2023 09:06 18,6 C 23,3 C 16,7 C 80 % 1018,8 hPa 0,0 l/m 2 min 0 min 478 W/m 12,9 km/h (3 Bft) 95,74 %
17.07.2023 09:08 18,6 C 22,8 C 16,7 C 79 % 1018,8 hPa 0,0 l/m 2 min 0 min 489 W/m 12,9 km/h (3 Bft) 97,87 %
17.07.2023 09:10 18,7 C 22,8 C 16,7 C 79 % 1018,9 hPa 0,0 l/m 2 min 0 min 489 W/m 12,9 km/h (3 Bft) 97,87 %
17.07.2023 09:12 18,7 C 22,8 C 17,2 C 79 % 1018,8 hPa 0,0 l/m 2 min 0 min 523 W/m 19,3 km/h (3 Bft) 97,87 %
17.07.2023 09:14 18,7 C 22,8 C 17,2 C 79 % 1018,9 hPa 0,0 l/m 2 min 0 min 527 W/m 9,7 km/h (2 Bft) 97,87 %
17.07.2023 09:16 18,8 C 23,3 C 17,2 C 79 % 1018,9 hPa 0,0 l/m 2 min 0 min 517 W/m 25,7 km/h (4 Bft) 95,65 %
17.07.2023 09:18 18,8 C 22,8 C 17,2 C 78 % 1018,9 hPa 0,0 l/m 2 min 0 min 526 W/m 22,5 km/h (4 Bft) 97,87 %
17.07.2023 09:20 18,8 C 23,3 C 17,2 C 78 % 1018,9 hPa 0,0 l/m 2 min 0 min 530 W/m 12,9 km/h (3 Bft) 97,87 %
17.07.2023 09:22 18,9 C 23,3 C 17,2 C 77 % 1018,9 hPa 0,0 l/m 2 min 0 min 538 W/m 16,1 km/h (3 Bft) 97,87 %
17.07.2023 09:24 18,9 C 22,2 C 17,2 C 77 % 1018,9 hPa 0,0 l/m 2 min 0 min 538 W/m 16,1 km/h (3 Bft) 95,74 %
17.07.2023 09:26 18,9 C 22,2 C 17,2 C 76 % 1019,0 hPa 0,0 l/m 2 min 0 min 534 W/m 19,3 km/h (3 Bft) 97,87 %
17.07.2023 09:28 18,9 C 22,2 C 17,2 C 75 % 1018,9 hPa 0,0 l/m 2 min 0 min 552 W/m 19,3 km/h (3 Bft) 97,87 %
17.07.2023 09:30 18,9 C 21,1 C 16,7 C 76 % 1019,0 hPa 0,0 l/m 2 min 0 min 561 W/m 16,1 km/h (3 Bft) 95,65 %
17.07.2023 09:32 18,9 C 22,2 C 17,2 C 76 % 1019,0 hPa 0,0 l/m 2 min 0 min 573 W/m 16,1 km/h (3 Bft) 95,74 %
17.07.2023 09:34 19,0 C 22,2 C 17,2 C 75 % 1019,0 hPa 0,0 l/m 2 min 0 min 607 W/m 16,1 km/h (3 Bft) 95,74 %
17.07.2023 09:36 19,1 C 22,8 C 17,8 C 76 % 1019,0 hPa 0,0 l/m 2 min 0 min 593 W/m 16,1 km/h (3 Bft) 95,74 %
17.07.2023 09:38 19,2 C 22,8 C 17,8 C 74 % 1019,0 hPa 0,0 l/m 2 min 0 min 560 W/m 16,1 km/h (3 Bft) 95,74 %
17.07.2023 09:40 19,2 C 22,2 C 17,8 C 74 % 1019,1 hPa 0,0 l/m 2 min 0 min 550 W/m 19,3 km/h (3 Bft) 95,74 %
17.07.2023 09:42 19,2 C 22,2 C 17,8 C 73 % 1019,0 hPa 0,0 l/m 2 min 0 min 559 W/m 16,1 km/h (3 Bft) 95,74 %
17.07.2023 09:44 19,2 C 22,2 C 17,8 C 73 % 1019,1 hPa 0,0 l/m 2 min 0 min 564 W/m 16,1 km/h (3 Bft) 95,65 %
17.07.2023 09:46 19,3 C 22,2 C 17,8 C 72 % 1019,0 hPa 0,0 l/m 2 min 0 min 575 W/m 25,7 km/h (4 Bft) 95,74 %
17.07.2023 09:48 19,3 C 22,2 C 17,8 C 71 % 1019,1 hPa 0,0 l/m 2 min 0 min 579 W/m 22,5 km/h (4 Bft) 93,62 %
17.07.2023 09:50 19,2 C 21,7 C 17,8 C 70 % 1019,1 hPa 0,0 l/m 2 min 0 min 588 W/m 22,5 km/h (4 Bft) 95,74 %
17.07.2023 09:52 19,2 C 21,7 C 17,8 C 70 % 1019,1 hPa 0,0 l/m 2 min 0 min 592 W/m 16,1 km/h (3 Bft) 91,49 %
17.07.2023 09:54 19,2 C 22,2 C 18,3 C 71 % 1019,1 hPa 0,0 l/m 2 min 0 min 596 W/m 19,3 km/h (3 Bft) 95,74 %
17.07.2023 09:56 19,3 C 22,2 C 18,3 C 71 % 1019,1 hPa 0,0 l/m 2 min 0 min 595 W/m 19,3 km/h (3 Bft) 95,74 %
17.07.2023 09:58 19,3 C 22,2 C 18,3 C 71 % 1019,1 hPa 0,0 l/m 2 min 0 min 600 W/m 16,1 km/h (3 Bft) 97,83 %
17.07.2023 10:00 19,4 C 22,2 C 17,8 C 72 % 1019,1 hPa 0,0 l/m 2 min 0 min 616 W/m 16,1 km/h (3 Bft) 97,87 %
17.07.2023 10:02 19,4 C 22,2 C 17,8 C 72 % 1019,2 hPa 0,0 l/m 2 min 0 min 620 W/m 16,1 km/h (3 Bft) 91,49 %
17.07.2023 10:09 19,7 C 22,8 C 17,8 C 71 % 1019,2 hPa 0,0 l/m 5 min 0 min 673 W/m 16,1 km/h (3 Bft) 98,51 %
17.07.2023 10:10 19,7 C 22,8 C 17,8 C 71 % 1019,2 hPa 0,0 l/m 1 min 0 min 655 W/m 16,1 km/h (3 Bft) 100,00 %
17.07.2023 10:12 19,8 C 23,3 C 17,8 C 71 % 1019,2 hPa 0,0 l/m 2 min 0 min 649 W/m 9,7 km/h (2 Bft) 100,00 %
17.07.2023 10:14 19,9 C 22,8 C 17,2 C 71 % 1019,2 hPa 0,0 l/m 2 min 0 min 670 W/m 19,3 km/h (3 Bft) 100,00 %
17.07.2023 10:16 19,9 C 22,8 C 17,2 C 70 % 1019,2 hPa 0,0 l/m 2 min 0 min 708 W/m 12,9 km/h (3 Bft) 100,00 %
17.07.2023 10:18 20,0 C 22,2 C 17,2 C 70 % 1019,2 hPa 0,0 l/m 2 min 0 min 671 W/m 19,3 km/h (3 Bft) 100,00 %
17.07.2023 10:20 20,0 C 21,7 C 16,7 C 70 % 1019,2 hPa 0,0 l/m 2 min 0 min 665 W/m 16,1 km/h (3 Bft) 100,00 %
17.07.2023 10:22 20,1 C 21,7 C 17,2 C 71 % 1019,2 hPa 0,0 l/m 2 min 0 min 676 W/m 19,3 km/h (3 Bft) 100,00 %
17.07.2023 10:24 20,1 C 21,7 C 17,2 C 69 % 1019,2 hPa 0,0 l/m 2 min 0 min 679 W/m 16,1 km/h (3 Bft) 100,00 %
17.07.2023 10:26 20,2 C 21,7 C 17,2 C 68 % 1019,2 hPa 0,0 l/m 2 min 0 min 674 W/m 16,1 km/h (3 Bft) 100,00 %
17.07.2023 10:28 20,2 C 21,1 C 16,7 C 68 % 1019,3 hPa 0,0 l/m 2 min 0 min 678 W/m 19,3 km/h (3 Bft) 100,00 %
17.07.2023 10:30 20,2 C 21,1 C 16,7 C 69 % 1019,2 hPa 0,0 l/m 2 min 0 min 695 W/m 19,3 km/h (3 Bft) 97,87 %
17.07.2023 10:32 20,3 C 21,1 C 17,2 C 69 % 1019,3 hPa 0,0 l/m 2 min 0 min 714 W/m 9,7 km/h (2 Bft) 100,00 %
17.07.2023 10:34 20,4 C 21,1 C 17,2 C 69 % 1019,3 hPa 0,0 l/m 2 min 0 min 704 W/m 12,9 km/h (3 Bft) 100,00 %
17.07.2023 10:36 20,4 C 21,1 C 17,2 C 68 % 1019,3 hPa 0,0 l/m 2 min 0 min 703 W/m 16,1 km/h (3 Bft) 100,00 %
17.07.2023 10:38 20,4 C 20,6 C 17,2 C 69 % 1019,3 hPa 0,0 l/m 2 min 0 min 706 W/m 19,3 km/h (3 Bft) 98,11 %
17.07.2023 10:40 20,4 C 20,6 C 17,2 C 68 % 1019,3 hPa 0,0 l/m 2 min 0 min 728 W/m 12,9 km/h (3 Bft) 100,00 %
17.07.2023 10:42 20,5 C 20,6 C 17,2 C 68 % 1019,3 hPa 0,0 l/m 2 min 0 min 739 W/m 19,3 km/h (3 Bft) 100,00 %
17.07.2023 10:44 20,5 C 21,1 C 17,8 C 68 % 1019,3 hPa 0,0 l/m 2 min 0 min 756 W/m 19,3 km/h (3 Bft) 95,74 %
17.07.2023 10:46 20,5 C 21,1 C 17,8 C 68 % 1019,4 hPa 0,0 l/m 2 min 0 min 761 W/m 22,5 km/h (4 Bft) 97,87 %
17.07.2023 10:48 20,5 C 21,1 C 18,3 C 66 % 1019,3 hPa 0,0 l/m 2 min 0 min 748 W/m 32,2 km/h (5 Bft) 97,83 %
17.07.2023 10:50 20,6 C 21,1 C 18,9 C 67 % 1019,3 hPa 0,0 l/m 2 min 0 min 738 W/m 19,3 km/h (3 Bft) 97,87 %
17.07.2023 10:52 20,7 C 21,7 C 18,9 C 67 % 1019,3 hPa 0,0 l/m 2 min 0 min 740 W/m 16,1 km/h (3 Bft) 97,87 %
17.07.2023 10:54 20,7 C 21,7 C 19,4 C 66 % 1019,4 hPa 0,0 l/m 2 min 0 min 742 W/m 16,1 km/h (3 Bft) 97,87 %
17.07.2023 10:56 20,7 C 21,1 C 19,4 C 65 % 1019,3 hPa 0,0 l/m 2 min 0 min 767 W/m 16,1 km/h (3 Bft) 97,87 %
17.07.2023 10:58 20,7 C 21,1 C 18,9 C 66 % 1019,3 hPa 0,0 l/m 2 min 0 min 763 W/m 19,3 km/h (3 Bft) 97,87 %
17.07.2023 11:00 20,7 C 21,7 C 18,9 C 66 % 1019,2 hPa 0,0 l/m 2 min 0 min 762 W/m 16,1 km/h (3 Bft) 95,74 %
17.07.2023 11:02 20,8 C 22,2 C 18,9 C 66 % 1019,3 hPa 0,0 l/m 2 min 0 min 765 W/m 19,3 km/h (3 Bft) 97,83 %
17.07.2023 11:04 20,8 C 22,2 C 18,9 C 64 % 1019,3 hPa 0,0 l/m 2 min 0 min 786 W/m 19,3 km/h (3 Bft) 97,67 %
17.07.2023 11:06 20,9 C 22,2 C 18,3 C 64 % 1019,4 hPa 0,0 l/m 2 min 0 min 812 W/m 25,7 km/h (4 Bft) 97,87 %
17.07.2023 11:08 20,9 C 22,2 C 17,8 C 65 % 1019,4 hPa 0,0 l/m 2 min 0 min 831 W/m 16,1 km/h (3 Bft) 97,87 %
17.07.2023 11:10 20,9 C 22,2 C 17,8 C 65 % 1019,4 hPa 0,0 l/m 2 min 0 min 829 W/m 16,1 km/h (3 Bft) 95,65 %
17.07.2023 11:12 20,8 C 22,2 C 17,8 C 65 % 1019,4 hPa 0,0 l/m 2 min 0 min 828 W/m 12,9 km/h (3 Bft) 97,87 %
17.07.2023 11:14 20,9 C 22,2 C 17,8 C 65 % 1019,4 hPa 0,0 l/m 2 min 0 min 828 W/m 12,9 km/h (3 Bft) 97,87 %
17.07.2023 11:16 20,9 C 22,8 C 17,8 C 65 % 1019,4 hPa 0,0 l/m 2 min 0 min 828 W/m 16,1 km/h (3 Bft) 97,87 %
17.07.2023 11:18 20,9 C 22,8 C 17,8 C 65 % 1019,4 hPa 0,0 l/m 2 min 0 min 832 W/m 16,1 km/h (3 Bft) 95,74 %
17.07.2023 11:20 21,0 C 22,2 C 17,8 C 65 % 1019,4 hPa 0,0 l/m 2 min 0 min 843 W/m 16,1 km/h (3 Bft) 95,74 %
17.07.2023 11:22 20,9 C 21,7 C 17,8 C 64 % 1019,4 hPa 0,0 l/m 2 min 0 min 819 W/m 12,9 km/h (3 Bft) 100,00 %
17.07.2023 11:24 20,8 C 21,1 C 17,2 C 64 % 1019,4 hPa 0,0 l/m 0 min 0 min 339 W/m 22,5 km/h (4 Bft) 100,00 %
17.07.2023 11:26 20,7 C 21,1 C 17,2 C 65 % 1019,5 hPa 0,0 l/m 2 min 0 min 681 W/m 19,3 km/h (3 Bft) 100,00 %
17.07.2023 11:28 20,8 C 22,8 C 17,8 C 65 % 1019,5 hPa 0,0 l/m 2 min 0 min 826 W/m 29,0 km/h (5 Bft) 97,87 %
17.07.2023 11:30 20,9 C 22,8 C 18,3 C 65 % 1019,5 hPa 0,0 l/m 2 min 0 min 851 W/m 12,9 km/h (3 Bft) 97,87 %
17.07.2023 11:32 20,9 C 23,3 C 18,9 C 64 % 1019,5 hPa 0,0 l/m 2 min 0 min 854 W/m 12,9 km/h (3 Bft) 97,87 %
17.07.2023 11:34 21,1 C 23,9 C 18,9 C 65 % 1019,5 hPa 0,0 l/m 2 min 0 min 903 W/m 16,1 km/h (3 Bft) 97,83 %
17.07.2023 11:36 21,2 C 23,3 C 18,9 C 63 % 1019,5 hPa 0,0 l/m 2 min 0 min 893 W/m 25,7 km/h (4 Bft) 97,87 %
17.07.2023 11:38 21,3 C 23,3 C 18,9 C 62 % 1019,5 hPa 0,0 l/m 2 min 0 min 825 W/m 22,5 km/h (4 Bft) 95,74 %
17.07.2023 11:40 21,3 C 23,9 C 19,4 C 61 % 1019,5 hPa 0,0 l/m 2 min 0 min 865 W/m 12,9 km/h (3 Bft) 97,87 %
17.07.2023 11:42 21,4 C 23,9 C 20,0 C 62 % 1019,5 hPa 0,0 l/m 2 min 0 min 879 W/m 22,5 km/h (4 Bft) 97,87 %
17.07.2023 11:44 21,6 C 23,9 C 20,0 C 61 % 1019,6 hPa 0,0 l/m 2 min 0 min 901 W/m 25,7 km/h (4 Bft) 97,87 %
17.07.2023 11:46 21,6 C 23,9 C 20,6 C 60 % 1019,5 hPa 0,0 l/m 2 min 0 min 922 W/m 22,5 km/h (4 Bft) 97,83 %
17.07.2023 11:48 21,6 C 23,9 C 21,1 C 60 % 1019,6 hPa 0,0 l/m 2 min 0 min 940 W/m 22,5 km/h (4 Bft) 97,87 %
17.07.2023 11:50 21,7 C 25,0 C 21,7 C 60 % 1019,6 hPa 0,0 l/m 2 min 0 min 932 W/m 35,4 km/h (5 Bft) 97,87 %
17.07.2023 11:52 21,6 C 23,9 C 20,6 C 59 % 1019,5 hPa 0,0 l/m 2 min 0 min 913 W/m 25,7 km/h (4 Bft) 97,87 %
17.07.2023 11:54 21,6 C 23,3 C 20,0 C 60 % 1019,5 hPa 0,0 l/m 2 min 0 min 842 W/m 35,4 km/h (5 Bft) 97,87 %
17.07.2023 11:56 21,6 C 25,0 C 20,0 C 61 % 1019,5 hPa 0,0 l/m 2 min 0 min 871 W/m 16,1 km/h (3 Bft) 97,87 %
17.07.2023 11:58 21,7 C 25,0 C 20,0 C 61 % 1019,5 hPa 0,0 l/m 2 min 0 min 878 W/m 29,0 km/h (5 Bft) 97,87 %
17.07.2023 12:00 21,8 C 25,0 C 20,0 C 60 % 1019,5 hPa 0,0 l/m 2 min 0 min 831 W/m 19,3 km/h (3 Bft) 97,83 %
17.07.2023 12:02 21,8 C 25,0 C 20,0 C 60 % 1019,5 hPa 0,0 l/m 2 min 0 min 865 W/m 22,5 km/h (4 Bft) 97,87 %
17.07.2023 12:04 21,8 C 23,9 C 19,4 C 60 % 1019,5 hPa 0,0 l/m 2 min 0 min 838 W/m 19,3 km/h (3 Bft) 95,92 %
17.07.2023 12:08 21,5 C 22,2 C 18,3 C 61 % 1019,5 hPa 0,0 l/m 0 min 0 min 279 W/m 25,7 km/h (4 Bft) 98,04 %
17.07.2023 12:10 21,4 C 23,3 C 18,3 C 61 % 1019,5 hPa 0,0 l/m 2 min 0 min 547 W/m 19,3 km/h (3 Bft) 100,00 %
17.07.2023 12:12 21,4 C 23,9 C 18,9 C 62 % 1019,5 hPa 0,0 l/m 2 min 0 min 837 W/m 25,7 km/h (4 Bft) 100,00 %
17.07.2023 12:14 21,6 C 23,9 C 19,4 C 61 % 1019,6 hPa 0,0 l/m 2 min 0 min 892 W/m 22,5 km/h (4 Bft) 100,00 %
17.07.2023 12:16 21,6 C 24,4 C 20,6 C 61 % 1019,5 hPa 0,0 l/m 2 min 0 min 894 W/m 19,3 km/h (3 Bft) 97,83 %
17.07.2023 12:18 21,6 C 24,4 C 21,1 C 61 % 1019,5 hPa 0,0 l/m 2 min 0 min 863 W/m 19,3 km/h (3 Bft) 100,00 %
17.07.2023 12:20 21,7 C 24,4 C 21,7 C 62 % 1019,5 hPa 0,0 l/m 2 min 0 min 920 W/m 16,1 km/h (3 Bft) 100,00 %
17.07.2023 12:22 21,7 C 23,3 C 21,1 C 61 % 1019,5 hPa 0,0 l/m 2 min 0 min 620 W/m 25,7 km/h (4 Bft) 100,00 %
17.07.2023 12:24 21,7 C 23,3 C 21,1 C 62 % 1019,5 hPa 0,0 l/m 0 min 0 min 378 W/m 16,1 km/h (3 Bft) 100,00 %
17.07.2023 12:26 21,7 C 23,3 C 21,1 C 62 % 1019,5 hPa 0,0 l/m 0 min 0 min 378 W/m 19,3 km/h (3 Bft) 100,00 %
17.07.2023 12:28 21,7 C 23,9 C 21,7 C 62 % 1019,5 hPa 0,0 l/m 0 min 0 min 378 W/m 32,2 km/h (5 Bft) 100,00 %
17.07.2023 12:30 21,7 C 23,3 C 21,1 C 62 % 1019,6 hPa 0,0 l/m 0 min 0 min 378 W/m 12,9 km/h (3 Bft) 97,87 %
17.07.2023 12:32 21,7 C 23,3 C 20,6 C 62 % 1019,5 hPa 0,0 l/m 0 min 0 min 293 W/m 19,3 km/h (3 Bft) 100,00 %
17.07.2023 12:34 21,7 C 22,8 C 20,6 C 62 % 1019,5 hPa 0,0 l/m 0 min 0 min 345 W/m 16,1 km/h (3 Bft) 100,00 %
17.07.2023 12:36 21,6 C 22,8 C 20,6 C 62 % 1019,6 hPa 0,0 l/m 2 min 0 min 562 W/m 16,1 km/h (3 Bft) 100,00 %
17.07.2023 12:38 21,6 C 22,2 C 20,0 C 62 % 1019,6 hPa 0,0 l/m 0 min 0 min 339 W/m 16,1 km/h (3 Bft) 97,87 %
17.07.2023 12:40 21,5 C 21,7 C 18,9 C 62 % 1019,6 hPa 0,0 l/m 0 min 0 min 205 W/m 19,3 km/h (3 Bft) 100,00 %
17.07.2023 12:42 21,4 C 21,1 C 18,3 C 62 % 1019,6 hPa 0,0 l/m 0 min 0 min 193 W/m 19,3 km/h (3 Bft) 100,00 %
17.07.2023 12:44 21,3 C 21,1 C 18,3 C 62 % 1019,7 hPa 0,0 l/m 0 min 0 min 248 W/m 25,7 km/h (4 Bft) 100,00 %
17.07.2023 12:46 21,2 C 21,1 C 18,3 C 63 % 1019,7 hPa 0,0 l/m 0 min 0 min 329 W/m 19,3 km/h (3 Bft) 95,65 %
17.07.2023 12:48 21,2 C 21,1 C 18,3 C 63 % 1019,7 hPa 0,0 l/m 0 min 0 min 306 W/m 16,1 km/h (3 Bft) 97,87 %
17.07.2023 12:50 21,1 C 21,1 C 17,8 C 63 % 1019,7 hPa 0,0 l/m 0 min 0 min 270 W/m 22,5 km/h (4 Bft) 100,00 %
17.07.2023 12:52 21,1 C 21,1 C 17,8 C 63 % 1019,8 hPa 0,0 l/m 0 min 0 min 267 W/m 19,3 km/h (3 Bft) 100,00 %
17.07.2023 12:54 21,1 C 21,1 C 17,8 C 64 % 1019,7 hPa 0,0 l/m 0 min 0 min 272 W/m 16,1 km/h (3 Bft) 97,83 %
17.07.2023 12:56 21,1 C 21,7 C 18,3 C 64 % 1019,7 hPa 0,0 l/m 0 min 0 min 329 W/m 12,9 km/h (3 Bft) 100,00 %
17.07.2023 12:58 21,1 C 23,9 C 18,3 C 64 % 1019,6 hPa 0,0 l/m 2 min 0 min 483 W/m 16,1 km/h (3 Bft) 98,28 %
17.07.2023 13:00 21,2 C 23,9 C 18,9 C 64 % 1019,6 hPa 0,0 l/m 2 min 0 min 927 W/m 22,5 km/h (4 Bft) 100,00 %
17.07.2023 13:02 21,3 C 23,9 C 18,9 C 63 % 1019,6 hPa 0,0 l/m 2 min 0 min 820 W/m 22,5 km/h (4 Bft) 95,74 %
17.07.2023 13:04 21,4 C 23,3 C 18,9 C 63 % 1019,6 hPa 0,0 l/m 2 min 0 min 710 W/m 16,1 km/h (3 Bft) 97,14 %
17.07.2023 13:06 21,5 C 22,8 C 18,9 C 63 % 1019,6 hPa 0,0 l/m 0 min 0 min 406 W/m 16,1 km/h (3 Bft) 94,92 %
17.07.2023 13:08 21,6 C 22,8 C 18,9 C 63 % 1019,6 hPa 0,0 l/m 0 min 0 min 385 W/m 16,1 km/h (3 Bft) 95,65 %
17.07.2023 13:10 21,6 C 22,8 C 18,9 C 62 % 1019,5 hPa 0,0 l/m 2 min 0 min 425 W/m 19,3 km/h (3 Bft) 94,29 %
17.07.2023 13:12 21,6 C 22,2 C 18,3 C 62 % 1019,6 hPa 0,0 l/m 0 min 0 min 384 W/m 22,5 km/h (4 Bft) 95,74 %
17.07.2023 13:14 21,6 C 21,7 C 18,3 C 62 % 1019,6 hPa 0,0 l/m 0 min 0 min 291 W/m 12,9 km/h (3 Bft) 95,74 %
17.07.2023 13:16 21,6 C 22,2 C 18,3 C 63 % 1019,6 hPa 0,0 l/m 0 min 0 min 304 W/m 12,9 km/h (3 Bft) 93,62 %
17.07.2023 13:18 21,7 C 22,8 C 18,9 C 63 % 1019,6 hPa 0,0 l/m 0 min 0 min 367 W/m 16,1 km/h (3 Bft) 95,74 %
17.07.2023 13:20 21,7 C 22,8 C 18,9 C 63 % 1019,6 hPa 0,0 l/m 0 min 0 min 405 W/m 16,1 km/h (3 Bft) 95,74 %
17.07.2023 13:22 21,7 C 22,8 C 18,9 C 63 % 1019,6 hPa 0,0 l/m 0 min 0 min 361 W/m 25,7 km/h (4 Bft) 93,62 %
17.07.2023 13:24 21,8 C 22,2 C 18,9 C 63 % 1019,6 hPa 0,0 l/m 0 min 0 min 323 W/m 16,1 km/h (3 Bft) 95,65 %
17.07.2023 13:26 21,7 C 21,7 C 18,3 C 61 % 1019,7 hPa 0,0 l/m 0 min 0 min 347 W/m 25,7 km/h (4 Bft) 95,74 %
17.07.2023 13:28 21,6 C 22,2 C 18,3 C 62 % 1019,6 hPa 0,0 l/m 0 min 0 min 353 W/m 16,1 km/h (3 Bft) 95,74 %
17.07.2023 13:30 21,5 C 22,8 C 18,3 C 62 % 1019,7 hPa 0,0 l/m 2 min 0 min 515 W/m 25,7 km/h (4 Bft) 93,62 %
17.07.2023 13:32 21,6 C 23,9 C 18,9 C 63 % 1019,6 hPa 0,0 l/m 2 min 0 min 582 W/m 19,3 km/h (3 Bft) 95,74 %
17.07.2023 13:34 21,8 C 26,1 C 18,9 C 63 % 1019,6 hPa 0,0 l/m 2 min 0 min 789 W/m 19,3 km/h (3 Bft) 93,62 %
17.07.2023 13:36 22,0 C 24,4 C 19,4 C 60 % 1019,7 hPa 0,0 l/m 2 min 0 min 858 W/m 22,5 km/h (4 Bft) 91,30 %
17.07.2023 13:38 22,1 C 23,9 C 19,4 C 60 % 1019,6 hPa 0,0 l/m 2 min 0 min 570 W/m 19,3 km/h (3 Bft) 93,62 %
17.07.2023 13:40 22,1 C 23,3 C 19,4 C 60 % 1019,6 hPa 0,0 l/m 2 min 0 min 490 W/m 16,1 km/h (3 Bft) 91,49 %
17.07.2023 13:42 22,1 C 23,3 C 18,9 C 60 % 1019,7 hPa 0,0 l/m 2 min 0 min 453 W/m 16,1 km/h (3 Bft) 93,62 %
17.07.2023 13:44 22,1 C 22,8 C 18,9 C 60 % 1019,7 hPa 0,0 l/m 2 min 0 min 422 W/m 22,5 km/h (4 Bft) 91,49 %
17.07.2023 13:46 22,1 C 22,2 C 18,9 C 61 % 1019,7 hPa 0,0 l/m 0 min 0 min 357 W/m 22,5 km/h (4 Bft) 91,49 %
17.07.2023 13:48 22,1 C 22,2 C 18,9 C 62 % 1019,7 hPa 0,0 l/m 0 min 0 min 330 W/m 16,1 km/h (3 Bft) 93,48 %
17.07.2023 13:50 22,0 C 22,2 C 18,3 C 62 % 1019,6 hPa 0,0 l/m 0 min 0 min 310 W/m 12,9 km/h (3 Bft) 93,62 %
17.07.2023 13:52 21,9 C 21,7 C 18,3 C 61 % 1019,6 hPa 0,0 l/m 0 min 0 min 335 W/m 16,1 km/h (3 Bft) 93,62 %
17.07.2023 13:54 21,8 C 21,7 C 18,3 C 62 % 1019,6 hPa 0,0 l/m 0 min 0 min 351 W/m 16,1 km/h (3 Bft) 93,62 %
17.07.2023 13:56 21,7 C 21,7 C 18,3 C 62 % 1019,6 hPa 0,0 l/m 0 min 0 min 363 W/m 19,3 km/h (3 Bft) 93,62 %
17.07.2023 13:58 21,7 C 21,7 C 18,3 C 62 % 1019,6 hPa 0,0 l/m 0 min 0 min 401 W/m 19,3 km/h (3 Bft) 95,74 %
17.07.2023 14:00 21,7 C 22,2 C 18,3 C 62 % 1019,6 hPa 0,0 l/m 2 min 0 min 454 W/m 16,1 km/h (3 Bft) 95,74 %
17.07.2023 14:02 21,8 C 24,4 C 18,9 C 63 % 1019,6 hPa 0,0 l/m 2 min 0 min 571 W/m 12,9 km/h (3 Bft) 93,48 %
17.07.2023 14:04 22,1 C 26,1 C 19,4 C 63 % 1019,5 hPa 0,0 l/m 2 min 0 min 935 W/m 19,3 km/h (3 Bft) 93,02 %
17.07.2023 14:06 22,3 C 27,2 C 20,0 C 63 % 1019,5 hPa 0,0 l/m 2 min 0 min 982 W/m 12,9 km/h (3 Bft) 96,55 %
17.07.2023 14:08 22,6 C 28,3 C 20,0 C 63 % 1019,5 hPa 0,0 l/m 2 min 0 min 1002 W/m 12,9 km/h (3 Bft) 100,00 %
17.07.2023 14:10 22,7 C 27,2 C 20,0 C 62 % 1019,5 hPa 0,0 l/m 2 min 0 min 1002 W/m 12,9 km/h (3 Bft) 100,00 %
17.07.2023 14:12 22,8 C 27,8 C 20,0 C 60 % 1019,5 hPa 0,0 l/m 2 min 0 min 637 W/m 16,1 km/h (3 Bft) 100,00 %
17.07.2023 14:14 22,9 C 27,8 C 20,0 C 61 % 1019,4 hPa 0,0 l/m 2 min 0 min 1081 W/m 19,3 km/h (3 Bft) 100,00 %
17.07.2023 14:16 23,1 C 28,3 C 19,4 C 61 % 1019,3 hPa 0,0 l/m 2 min 0 min 1135 W/m 12,9 km/h (3 Bft) 100,00 %
17.07.2023 14:18 23,3 C 28,3 C 20,0 C 60 % 1019,3 hPa 0,0 l/m 2 min 0 min 1068 W/m 16,1 km/h (3 Bft) 100,00 %
17.07.2023 14:20 23,4 C 28,3 C 20,0 C 59 % 1019,4 hPa 0,0 l/m 2 min 0 min 829 W/m 16,1 km/h (3 Bft) 100,00 %
17.07.2023 14:22 23,6 C 28,9 C 20,0 C 57 % 1019,3 hPa 0,0 l/m 2 min 0 min 956 W/m 19,3 km/h (3 Bft) 100,00 %
17.07.2023 14:24 23,6 C 28,3 C 20,0 C 58 % 1019,3 hPa 0,0 l/m 2 min 0 min 1065 W/m 16,1 km/h (3 Bft) 100,00 %
17.07.2023 14:26 23,6 C 26,7 C 20,0 C 57 % 1019,2 hPa 0,0 l/m 2 min 0 min 1083 W/m 16,1 km/h (3 Bft) 100,00 %
17.07.2023 14:28 23,6 C 27,2 C 20,0 C 58 % 1019,3 hPa 0,0 l/m 2 min 0 min 1083 W/m 16,1 km/h (3 Bft) 100,00 %
17.07.2023 14:30 23,7 C 27,2 C 20,0 C 57 % 1019,2 hPa 0,0 l/m 2 min 0 min 1128 W/m 22,5 km/h (4 Bft) 100,00 %
17.07.2023 14:32 23,8 C 28,3 C 20,0 C 58 % 1019,3 hPa 0,0 l/m 2 min 0 min 1144 W/m 16,1 km/h (3 Bft) 97,87 %
17.07.2023 14:34 23,9 C 28,3 C 20,0 C 57 % 1019,2 hPa 0,0 l/m 2 min 0 min 1063 W/m 16,1 km/h (3 Bft) 100,00 %
17.07.2023 14:36 23,9 C 26,7 C 20,0 C 57 % 1019,2 hPa 0,0 l/m 2 min 0 min 777 W/m 12,9 km/h (3 Bft) 100,00 %
17.07.2023 14:38 23,9 C 27,2 C 20,0 C 57 % 1019,2 hPa 0,0 l/m 2 min 0 min 765 W/m 22,5 km/h (4 Bft) 100,00 %
17.07.2023 14:40 23,9 C 27,8 C 20,0 C 56 % 1019,2 hPa 0,0 l/m 2 min 0 min 765 W/m 12,9 km/h (3 Bft) 100,00 %
17.07.2023 14:42 24,0 C 28,3 C 20,0 C 55 % 1019,2 hPa 0,0 l/m 2 min 0 min 1135 W/m 16,1 km/h (3 Bft) 97,87 %
17.07.2023 14:44 24,1 C 28,9 C 20,0 C 55 % 1019,2 hPa 0,0 l/m 2 min 0 min 1081 W/m 19,3 km/h (3 Bft) 100,00 %
17.07.2023 14:46 24,2 C 28,3 C 20,0 C 54 % 1019,2 hPa 0,0 l/m 2 min 0 min 1090 W/m 19,3 km/h (3 Bft) 100,00 %
17.07.2023 14:48 24,2 C 27,8 C 20,6 C 54 % 1019,1 hPa 0,0 l/m 2 min 0 min 1034 W/m 12,9 km/h (3 Bft) 100,00 %
17.07.2023 14:50 24,3 C 27,2 C 20,6 C 54 % 1019,1 hPa 0,0 l/m 2 min 0 min 579 W/m 16,1 km/h (3 Bft) 100,00 %
17.07.2023 14:52 24,3 C 26,7 C 20,0 C 54 % 1019,1 hPa 0,0 l/m 2 min 0 min 550 W/m 12,9 km/h (3 Bft) 95,74 %
17.07.2023 14:54 24,2 C 25,0 C 20,0 C 53 % 1019,1 hPa 0,0 l/m 0 min 0 min 243 W/m 19,3 km/h (3 Bft) 100,00 %
17.07.2023 14:56 24,1 C 26,7 C 20,0 C 55 % 1019,1 hPa 0,0 l/m 2 min 0 min 467 W/m 16,1 km/h (3 Bft) 97,87 %
17.07.2023 14:58 24,0 C 26,7 C 20,0 C 54 % 1019,0 hPa 0,0 l/m 2 min 0 min 1028 W/m 16,1 km/h (3 Bft) 100,00 %
17.07.2023 15:00 23,9 C 25,6 C 20,0 C 54 % 1019,1 hPa 0,0 l/m 2 min 0 min 621 W/m 19,3 km/h (3 Bft) 100,00 %
17.07.2023 15:02 23,8 C 25,0 C 19,4 C 54 % 1019,1 hPa 0,0 l/m 0 min 0 min 316 W/m 16,1 km/h (3 Bft) 100,00 %
17.07.2023 15:04 23,7 C 25,6 C 19,4 C 55 % 1019,1 hPa 0,0 l/m 0 min 0 min 316 W/m 19,3 km/h (3 Bft) 97,92 %
17.07.2023 15:06 23,6 C 23,9 C 19,4 C 55 % 1019,1 hPa 0,0 l/m 0 min 0 min 277 W/m 16,1 km/h (3 Bft) 100,00 %
17.07.2023 15:08 23,6 C 24,4 C 19,4 C 56 % 1019,1 hPa 0,0 l/m 0 min 0 min 253 W/m 12,9 km/h (3 Bft) 100,00 %
17.07.2023 15:10 23,6 C 26,1 C 19,4 C 55 % 1019,1 hPa 0,0 l/m 2 min 0 min 625 W/m 16,1 km/h (3 Bft) 100,00 %
17.07.2023 15:12 23,7 C 27,2 C 19,4 C 56 % 1019,0 hPa 0,0 l/m 2 min 0 min 942 W/m 12,9 km/h (3 Bft) 100,00 %
17.07.2023 15:14 23,8 C 28,3 C 20,0 C 55 % 1019,0 hPa 0,0 l/m 2 min 0 min 925 W/m 16,1 km/h (3 Bft) 100,00 %
17.07.2023 15:16 24,0 C 28,9 C 20,0 C 54 % 1019,0 hPa 0,0 l/m 2 min 0 min 946 W/m 22,5 km/h (4 Bft) 100,00 %
17.07.2023 15:18 24,1 C 26,7 C 20,0 C 53 % 1019,0 hPa 0,0 l/m 2 min 0 min 1000 W/m 19,3 km/h (3 Bft) 97,87 %
17.07.2023 15:20 24,1 C 25,6 C 20,0 C 54 % 1018,9 hPa 0,0 l/m 2 min 0 min 590 W/m 32,2 km/h (5 Bft) 97,87 %
17.07.2023 15:22 24,0 C 25,0 C 20,0 C 54 % 1019,1 hPa 0,0 l/m 0 min 0 min 376 W/m 19,3 km/h (3 Bft) 97,87 %
17.07.2023 15:24 23,9 C 24,4 C 20,0 C 54 % 1019,0 hPa 0,0 l/m 2 min 0 min 484 W/m 19,3 km/h (3 Bft) 100,00 %
17.07.2023 15:26 23,9 C 25,0 C 20,0 C 54 % 1019,0 hPa 0,0 l/m 2 min 0 min 538 W/m 19,3 km/h (3 Bft) 100,00 %
17.07.2023 15:28 23,9 C 25,0 C 20,6 C 53 % 1019,0 hPa 0,0 l/m 2 min 0 min 540 W/m 19,3 km/h (3 Bft) 100,00 %
17.07.2023 15:30 23,9 C 24,4 C 20,6 C 52 % 1019,0 hPa 0,0 l/m 2 min 0 min 468 W/m 19,3 km/h (3 Bft) 100,00 %
17.07.2023 15:32 23,8 C 24,4 C 20,0 C 53 % 1018,9 hPa 0,0 l/m 2 min 0 min 430 W/m 12,9 km/h (3 Bft) 93,62 %
17.07.2023 15:34 23,8 C 23,9 C 20,0 C 53 % 1019,0 hPa 0,0 l/m 0 min 0 min 383 W/m 38,6 km/h (5 Bft) 97,87 %
17.07.2023 15:36 23,6 C 23,3 C 20,0 C 53 % 1018,9 hPa 0,0 l/m 0 min 0 min 365 W/m 19,3 km/h (3 Bft) 95,74 %
17.07.2023 15:38 23,5 C 23,3 C 20,0 C 54 % 1019,0 hPa 0,0 l/m 0 min 0 min 371 W/m 29,0 km/h (5 Bft) 95,65 %
17.07.2023 15:40 23,4 C 23,3 C 19,4 C 54 % 1018,9 hPa 0,0 l/m 2 min 0 min 445 W/m 25,7 km/h (4 Bft) 97,87 %
17.07.2023 15:42 23,4 C 23,9 C 20,0 C 54 % 1019,0 hPa 0,0 l/m 2 min 0 min 511 W/m 9,7 km/h (2 Bft) 93,62 %
17.07.2023 15:44 23,5 C 25,0 C 20,0 C 54 % 1019,0 hPa 0,0 l/m 2 min 0 min 555 W/m 12,9 km/h (3 Bft) 95,74 %
17.07.2023 15:46 23,6 C 25,0 C 20,0 C 55 % 1019,0 hPa 0,0 l/m 2 min 0 min 549 W/m 9,7 km/h (2 Bft) 95,74 %
17.07.2023 15:48 23,7 C 24,4 C 20,0 C 54 % 1018,9 hPa 0,0 l/m 0 min 0 min 320 W/m 12,9 km/h (3 Bft) 93,62 %
17.07.2023 15:50 23,7 C 23,9 C 20,0 C 55 % 1018,9 hPa 0,0 l/m 0 min 0 min 278 W/m 16,1 km/h (3 Bft) 95,65 %
17.07.2023 15:52 23,6 C 23,3 C 20,0 C 54 % 1019,0 hPa 0,0 l/m 0 min 0 min 258 W/m 12,9 km/h (3 Bft) 95,74 %
17.07.2023 15:54 23,6 C 23,3 C 19,4 C 55 % 1018,9 hPa 0,0 l/m 0 min 0 min 288 W/m 12,9 km/h (3 Bft) 95,74 %
17.07.2023 15:56 23,5 C 23,3 C 19,4 C 55 % 1018,9 hPa 0,0 l/m 0 min 0 min 320 W/m 25,7 km/h (4 Bft) 95,74 %
17.07.2023 15:58 23,4 C 24,4 C 20,0 C 55 % 1019,0 hPa 0,0 l/m 2 min 0 min 396 W/m 19,3 km/h (3 Bft) 93,62 %
17.07.2023 16:00 23,6 C 25,6 C 20,0 C 54 % 1018,9 hPa 0,0 l/m 2 min 0 min 480 W/m 16,1 km/h (3 Bft) 95,74 %
17.07.2023 16:02 23,7 C 26,7 C 20,0 C 55 % 1019,0 hPa 0,0 l/m 2 min 0 min 520 W/m 12,9 km/h (3 Bft) 93,62 %
17.07.2023 16:04 23,8 C 26,1 C 20,0 C 55 % 1018,9 hPa 0,0 l/m 2 min 0 min 811 W/m 16,1 km/h (3 Bft) 95,83 %
17.07.2023 16:06 23,8 C 24,4 C 20,0 C 55 % 1018,9 hPa 0,0 l/m 2 min 0 min 452 W/m 19,3 km/h (3 Bft) 95,74 %
17.07.2023 16:08 23,8 C 23,9 C 20,0 C 55 % 1018,9 hPa 0,0 l/m 0 min 0 min 305 W/m 12,9 km/h (3 Bft) 97,87 %
17.07.2023 16:10 23,8 C 24,4 C 20,0 C 55 % 1018,9 hPa 0,0 l/m 2 min 0 min 360 W/m 16,1 km/h (3 Bft) 97,87 %
17.07.2023 16:12 23,8 C 24,4 C 20,0 C 55 % 1018,9 hPa 0,0 l/m 2 min 0 min 383 W/m 19,3 km/h (3 Bft) 95,92 %
17.07.2023 16:14 23,8 C 24,4 C 20,0 C 54 % 1018,9 hPa 0,0 l/m 2 min 0 min 363 W/m 22,5 km/h (4 Bft) 95,74 %
17.07.2023 16:16 23,9 C 25,0 C 20,0 C 54 % 1019,0 hPa 0,0 l/m 2 min 0 min 417 W/m 19,3 km/h (3 Bft) 97,87 %
17.07.2023 16:18 23,9 C 25,0 C 20,0 C 55 % 1019,0 hPa 0,0 l/m 2 min 0 min 417 W/m 19,3 km/h (3 Bft) 95,74 %
17.07.2023 16:20 24,0 C 24,4 C 20,0 C 54 % 1018,9 hPa 0,0 l/m 0 min 0 min 262 W/m 19,3 km/h (3 Bft) 95,74 %
17.07.2023 16:22 24,0 C 23,9 C 20,0 C 54 % 1019,0 hPa 0,0 l/m 0 min 0 min 204 W/m 16,1 km/h (3 Bft) 97,87 %
17.07.2023 16:24 23,8 C 23,3 C 20,0 C 54 % 1019,0 hPa 0,0 l/m 0 min 0 min 182 W/m 22,5 km/h (4 Bft) 97,83 %
17.07.2023 16:26 23,7 C 23,3 C 19,4 C 54 % 1019,0 hPa 0,0 l/m 0 min 0 min 152 W/m 12,9 km/h (3 Bft) 97,87 %
17.07.2023 16:28 23,6 C 22,8 C 19,4 C 55 % 1019,1 hPa 0,0 l/m 0 min 0 min 126 W/m 16,1 km/h (3 Bft) 97,87 %
17.07.2023 16:30 23,6 C 22,8 C 19,4 C 55 % 1019,1 hPa 0,0 l/m 0 min 0 min 114 W/m 12,9 km/h (3 Bft) 97,87 %
17.07.2023 16:32 23,4 C 22,2 C 18,9 C 55 % 1019,3 hPa 0,0 l/m 0 min 0 min 102 W/m 25,7 km/h (4 Bft) 97,87 %
17.07.2023 16:34 23,1 C 21,1 C 18,3 C 57 % 1019,4 hPa 0,0 l/m 0 min 0 min 87 W/m 35,4 km/h (5 Bft) 95,74 %
17.07.2023 16:36 22,6 C 20,6 C 17,2 C 60 % 1019,5 hPa 0,0 l/m 0 min 0 min 72 W/m 25,7 km/h (4 Bft) 97,83 %
17.07.2023 16:38 22,0 C 20,0 C 16,7 C 62 % 1019,5 hPa 0,0 l/m 0 min 0 min 50 W/m 19,3 km/h (3 Bft) 97,87 %
17.07.2023 16:40 21,3 C 18,9 C 16,7 C 63 % 1019,5 hPa 0,0 l/m 0 min 0 min 40 W/m 25,7 km/h (4 Bft) 97,87 %
17.07.2023 16:42 20,9 C 18,9 C 16,1 C 65 % 1019,5 hPa 0,0 l/m 0 min 0 min 44 W/m 22,5 km/h (4 Bft) 97,87 %
17.07.2023 16:44 20,6 C 18,9 C 16,1 C 67 % 1019,5 hPa 0,0 l/m 0 min 2 min 43 W/m 22,5 km/h (4 Bft) 97,87 %
17.07.2023 16:46 20,3 C 18,3 C 15,6 C 69 % 1019,5 hPa 0,0 l/m 0 min 2 min 51 W/m 16,1 km/h (3 Bft) 97,87 %
17.07.2023 16:48 20,1 C 18,3 C 15,6 C 70 % 1019,6 hPa 0,0 l/m 0 min 2 min 62 W/m 16,1 km/h (3 Bft) 97,83 %
17.07.2023 16:50 19,9 C 18,3 C 15,0 C 71 % 1019,6 hPa 0,0 l/m 0 min 2 min 73 W/m 16,1 km/h (3 Bft) 97,87 %
17.07.2023 16:52 19,8 C 18,3 C 15,0 C 71 % 1019,7 hPa 0,0 l/m 0 min 0 min 81 W/m 19,3 km/h (3 Bft) 95,74 %
17.07.2023 16:54 19,7 C 18,3 C 15,0 C 72 % 1019,8 hPa 0,0 l/m 0 min 0 min 84 W/m 16,1 km/h (3 Bft) 97,87 %
17.07.2023 16:56 19,5 C 18,3 C 15,0 C 73 % 1019,8 hPa 0,0 l/m 0 min 0 min 91 W/m 9,7 km/h (2 Bft) 95,74 %
17.07.2023 16:58 19,4 C 18,3 C 15,0 C 74 % 1019,9 hPa 0,0 l/m 0 min 2 min 99 W/m 16,1 km/h (3 Bft) 97,56 %
17.07.2023 17:00 19,3 C 18,3 C 15,0 C 76 % 1019,9 hPa 0,0 l/m 0 min 2 min 98 W/m 19,3 km/h (3 Bft) 97,87 %
17.07.2023 17:02 19,3 C 18,3 C 15,0 C 76 % 1019,9 hPa 0,0 l/m 0 min 2 min 94 W/m 12,9 km/h (3 Bft) 97,87 %
17.07.2023 17:04 19,2 C 18,3 C 15,0 C 78 % 1019,9 hPa 0,0 l/m 0 min 2 min 92 W/m 6,4 km/h (2 Bft) 97,96 %
17.07.2023 17:06 19,2 C 18,3 C 15,0 C 79 % 1019,9 hPa 0,0 l/m 0 min 0 min 104 W/m 9,7 km/h (2 Bft) 97,87 %
17.07.2023 17:08 19,1 C 18,3 C 15,0 C 79 % 1019,9 hPa 0,0 l/m 0 min 2 min 136 W/m 6,4 km/h (2 Bft) 97,83 %
17.07.2023 17:10 19,1 C 18,3 C 14,4 C 80 % 1019,8 hPa 0,0 l/m 0 min 2 min 173 W/m 3,2 km/h (1 Bft) 97,87 %
17.07.2023 17:12 19,1 C 18,9 C 14,4 C 81 % 1019,8 hPa 0,0 l/m 0 min 0 min 179 W/m 6,4 km/h (2 Bft) 95,74 %
17.07.2023 17:14 19,2 C 18,9 C 15,0 C 82 % 1019,8 hPa 0,0 l/m 0 min 0 min 192 W/m 6,4 km/h (2 Bft) 97,87 %
17.07.2023 17:16 19,2 C 18,9 C 15,0 C 82 % 1019,8 hPa 0,0 l/m 0 min 0 min 219 W/m 6,4 km/h (2 Bft) 97,87 %
17.07.2023 17:18 19,2 C 19,4 C 15,6 C 82 % 1019,8 hPa 0,0 l/m 0 min 0 min 227 W/m 9,7 km/h (2 Bft) 97,87 %
17.07.2023 17:20 19,2 C 19,4 C 15,6 C 82 % 1019,8 hPa 0,0 l/m 0 min 0 min 191 W/m 9,7 km/h (2 Bft) 97,83 %
17.07.2023 17:22 19,2 C 19,4 C 15,6 C 82 % 1019,7 hPa 0,0 l/m 0 min 0 min 174 W/m 12,9 km/h (3 Bft) 96,30 %
17.07.2023 17:24 19,2 C 19,4 C 16,1 C 81 % 1019,8 hPa 0,0 l/m 0 min 0 min 202 W/m 12,9 km/h (3 Bft) 98,00 %
17.07.2023 17:26 19,3 C 19,4 C 16,1 C 80 % 1019,8 hPa 0,0 l/m 0 min 0 min 257 W/m 6,4 km/h (2 Bft) 100,00 %
17.07.2023 17:28 19,3 C 20,6 C 16,1 C 80 % 1019,8 hPa 0,0 l/m 2 min 0 min 308 W/m 12,9 km/h (3 Bft) 97,14 %
17.07.2023 17:30 19,4 C 20,6 C 16,7 C 79 % 1019,7 hPa 0,0 l/m 2 min 0 min 334 W/m 9,7 km/h (2 Bft) 100,00 %
17.07.2023 17:32 19,6 C 20,6 C 16,7 C 78 % 1019,8 hPa 0,0 l/m 0 min 0 min 244 W/m 12,9 km/h (3 Bft) 97,87 %
17.07.2023 17:34 19,6 C 20,6 C 16,7 C 77 % 1019,8 hPa 0,0 l/m 0 min 0 min 194 W/m 9,7 km/h (2 Bft) 97,83 %
17.07.2023 17:36 19,7 C 20,6 C 16,7 C 76 % 1019,8 hPa 0,0 l/m 0 min 0 min 179 W/m 6,4 km/h (2 Bft) 97,87 %
17.07.2023 17:38 19,8 C 20,0 C 16,7 C 76 % 1019,8 hPa 0,0 l/m 0 min 0 min 151 W/m 9,7 km/h (2 Bft) 97,87 %
17.07.2023 17:40 19,9 C 20,0 C 16,7 C 75 % 1019,8 hPa 0,0 l/m 0 min 0 min 125 W/m 12,9 km/h (3 Bft) 97,87 %
17.07.2023 17:42 19,9 C 20,0 C 16,7 C 73 % 1019,9 hPa 0,0 l/m 0 min 0 min 131 W/m 12,9 km/h (3 Bft) 95,74 %
17.07.2023 17:44 20,0 C 20,0 C 16,7 C 72 % 1019,9 hPa 0,0 l/m 0 min 0 min 132 W/m 16,1 km/h (3 Bft) 97,87 %
17.07.2023 17:46 20,1 C 20,0 C 16,7 C 71 % 1020,0 hPa 0,0 l/m 0 min 0 min 112 W/m 16,1 km/h (3 Bft) 97,83 %
17.07.2023 17:48 20,1 C 20,0 C 16,7 C 71 % 1020,0 hPa 0,0 l/m 0 min 0 min 110 W/m 16,1 km/h (3 Bft) 97,87 %
17.07.2023 17:50 20,1 C 20,0 C 16,7 C 71 % 1020,1 hPa 0,0 l/m 0 min 0 min 102 W/m 16,1 km/h (3 Bft) 97,87 %
17.07.2023 17:52 20,1 C 19,4 C 16,1 C 71 % 1020,0 hPa 0,0 l/m 0 min 0 min 88 W/m 35,4 km/h (5 Bft) 97,87 %
17.07.2023 17:54 20,0 C 18,9 C 16,1 C 69 % 1020,1 hPa 0,0 l/m 0 min 0 min 84 W/m 45,1 km/h (6 Bft) 97,87 %
17.07.2023 17:56 19,8 C 18,9 C 15,6 C 68 % 1020,3 hPa 0,0 l/m 0 min 0 min 65 W/m 29,0 km/h (5 Bft) 97,87 %
17.07.2023 17:58 19,7 C 18,9 C 15,6 C 68 % 1020,2 hPa 0,0 l/m 0 min 0 min 53 W/m 22,5 km/h (4 Bft) 97,83 %
17.07.2023 18:00 19,6 C 18,9 C 15,0 C 68 % 1020,5 hPa 0,0 l/m 0 min 0 min 35 W/m 16,1 km/h (3 Bft) 97,87 %
17.07.2023 18:02 19,5 C 18,3 C 15,0 C 68 % 1021,0 hPa 0,0 l/m 0 min 2 min 15 W/m 29,0 km/h (5 Bft) 97,87 %
17.07.2023 18:04 19,3 C 17,8 C 13,9 C 72 % 1021,3 hPa 0,4 l/m 0 min 2 min 16 W/m 25,7 km/h (4 Bft) 97,96 %
17.07.2023 18:07 18,7 C 15,6 C 11,7 C 77 % 1021,3 hPa 1,4 l/m 0 min 3 min 33 W/m 25,7 km/h (4 Bft) 97,40 %
17.07.2023 18:08 18,3 C 15,0 C 11,1 C 78 % 1021,3 hPa 0,2 l/m 0 min 1 min 52 W/m 12,9 km/h (3 Bft) 100,00 %
17.07.2023 18:12 17,4 C 14,4 C 11,1 C 82 % 1020,8 hPa 0,2 l/m 0 min 4 min 104 W/m 19,3 km/h (3 Bft) 98,04 %
17.07.2023 18:14 17,2 C 15,6 C 11,1 C 83 % 1020,6 hPa 0,0 l/m 0 min 2 min 150 W/m 16,1 km/h (3 Bft) 100,00 %
17.07.2023 18:16 17,1 C 16,1 C 11,7 C 85 % 1020,5 hPa 0,0 l/m 0 min 0 min 220 W/m 16,1 km/h (3 Bft) 97,87 %
17.07.2023 18:18 17,1 C 17,2 C 12,2 C 86 % 1020,5 hPa 0,0 l/m 2 min 0 min 337 W/m 12,9 km/h (3 Bft) 100,00 %
17.07.2023 18:20 16,9 C 17,8 C 11,7 C 87 % 1020,4 hPa 0,0 l/m 2 min 0 min 499 W/m 6,4 km/h (2 Bft) 100,00 %
17.07.2023 18:22 17,0 C 17,8 C 12,2 C 89 % 1020,5 hPa 0,0 l/m 2 min 0 min 592 W/m 6,4 km/h (2 Bft) 95,65 %
17.07.2023 18:24 17,0 C 17,2 C 12,2 C 89 % 1020,5 hPa 0,0 l/m 2 min 0 min 235 W/m 6,4 km/h (2 Bft) 100,00 %
17.07.2023 18:26 17,0 C 17,8 C 12,2 C 89 % 1020,4 hPa 0,0 l/m 2 min 0 min 237 W/m 6,4 km/h (2 Bft) 97,87 %
17.07.2023 18:28 17,1 C 19,4 C 12,2 C 90 % 1020,4 hPa 0,0 l/m 2 min 0 min 352 W/m 9,7 km/h (2 Bft) 95,74 %
17.07.2023 18:30 17,2 C 20,6 C 12,8 C 90 % 1020,4 hPa 0,0 l/m 2 min 0 min 557 W/m 3,2 km/h (1 Bft) 97,87 %
17.07.2023 18:32 17,3 C 21,1 C 12,8 C 90 % 1020,4 hPa 0,0 l/m 2 min 0 min 531 W/m 6,4 km/h (2 Bft) 95,74 %
17.07.2023 18:34 17,3 C 21,1 C 12,8 C 90 % 1020,4 hPa 0,0 l/m 2 min 0 min 503 W/m 6,4 km/h (2 Bft) 93,48 %
17.07.2023 18:36 17,3 C 21,7 C 12,8 C 90 % 1020,4 hPa 0,0 l/m 2 min 0 min 487 W/m 6,4 km/h (2 Bft) 93,62 %
17.07.2023 18:38 17,5 C 21,7 C 12,8 C 90 % 1020,4 hPa 0,0 l/m 2 min 0 min 453 W/m 6,4 km/h (2 Bft) 97,87 %
17.07.2023 18:40 17,6 C 22,8 C 12,8 C 91 % 1020,5 hPa 0,0 l/m 2 min 0 min 426 W/m 12,9 km/h (3 Bft) 95,74 %
17.07.2023 18:42 17,7 C 22,8 C 12,8 C 90 % 1020,5 hPa 0,0 l/m 2 min 0 min 401 W/m 12,9 km/h (3 Bft) 97,87 %
17.07.2023 18:44 17,7 C 22,8 C 12,8 C 90 % 1020,5 hPa 0,0 l/m 2 min 0 min 380 W/m 9,7 km/h (2 Bft) 97,87 %
17.07.2023 18:46 17,8 C 22,2 C 12,8 C 89 % 1020,5 hPa 0,0 l/m 2 min 0 min 369 W/m 9,7 km/h (2 Bft) 95,65 %
17.07.2023 18:48 17,8 C 20,6 C 12,8 C 88 % 1020,4 hPa 0,0 l/m 2 min 0 min 216 W/m 9,7 km/h (2 Bft) 97,87 %
17.07.2023 18:50 17,8 C 19,4 C 12,2 C 88 % 1020,4 hPa 0,0 l/m 0 min 0 min 95 W/m 3,2 km/h (1 Bft) 95,74 %
17.07.2023 18:52 17,8 C 18,9 C 12,2 C 87 % 1020,5 hPa 0,0 l/m 0 min 0 min 109 W/m 3,2 km/h (1 Bft) 95,74 %
17.07.2023 18:54 17,8 C 18,3 C 12,2 C 87 % 1020,5 hPa 0,0 l/m 0 min 0 min 119 W/m 3,2 km/h (1 Bft) 97,87 %
17.07.2023 18:56 17,8 C 17,8 C 12,2 C 87 % 1020,4 hPa 0,0 l/m 0 min 0 min 114 W/m 3,2 km/h (1 Bft) 97,87 %
17.07.2023 18:58 17,7 C 17,2 C 12,2 C 87 % 1020,4 hPa 0,0 l/m 0 min 0 min 86 W/m 3,2 km/h (1 Bft) 95,74 %
17.07.2023 19:00 17,7 C 17,2 C 12,2 C 87 % 1020,6 hPa 0,0 l/m 0 min 0 min 95 W/m 6,4 km/h (2 Bft) 95,65 %
17.07.2023 19:02 17,8 C 17,8 C 12,2 C 88 % 1020,6 hPa 0,0 l/m 0 min 0 min 141 W/m 3,2 km/h (1 Bft) 97,87 %
17.07.2023 19:04 17,8 C 19,4 C 12,8 C 88 % 1020,6 hPa 0,0 l/m 2 min 0 min 268 W/m 6,4 km/h (2 Bft) 95,74 %
17.07.2023 19:06 17,8 C 20,6 C 12,8 C 88 % 1020,6 hPa 0,0 l/m 2 min 0 min 335 W/m 6,4 km/h (2 Bft) 97,87 %
17.07.2023 19:08 17,9 C 21,7 C 12,8 C 88 % 1020,6 hPa 0,0 l/m 2 min 0 min 357 W/m 3,2 km/h (1 Bft) 95,74 %
17.07.2023 19:10 18,1 C 22,8 C 12,8 C 88 % 1020,6 hPa 0,0 l/m 2 min 0 min 378 W/m 3,2 km/h (1 Bft) 95,74 %
17.07.2023 19:12 18,1 C 22,8 C 12,8 C 87 % 1020,6 hPa 0,0 l/m 2 min 0 min 352 W/m 6,4 km/h (2 Bft) 97,83 %
17.07.2023 19:14 18,2 C 22,8 C 12,8 C 87 % 1020,6 hPa 0,0 l/m 2 min 0 min 320 W/m 6,4 km/h (2 Bft) 97,87 %
17.07.2023 19:16 18,3 C 22,8 C 12,8 C 86 % 1020,5 hPa 0,0 l/m 2 min 0 min 301 W/m 6,4 km/h (2 Bft) 91,49 %
17.07.2023 19:18 18,3 C 22,8 C 12,8 C 86 % 1020,5 hPa 0,0 l/m 2 min 0 min 293 W/m 6,4 km/h (2 Bft) 97,87 %
17.07.2023 19:20 18,4 C 22,8 C 12,8 C 85 % 1020,5 hPa 0,0 l/m 2 min 0 min 285 W/m 6,4 km/h (2 Bft) 100,00 %
17.07.2023 19:22 18,4 C 22,8 C 12,2 C 85 % 1020,6 hPa 0,0 l/m 2 min 0 min 282 W/m 6,4 km/h (2 Bft) 97,87 %
17.07.2023 19:24 18,5 C 22,8 C 12,2 C 84 % 1020,6 hPa 0,0 l/m 2 min 0 min 277 W/m 3,2 km/h (1 Bft) 100,00 %
17.07.2023 19:26 18,6 C 22,8 C 12,2 C 84 % 1020,6 hPa 0,0 l/m 2 min 0 min 271 W/m 3,2 km/h (1 Bft) 95,65 %
17.07.2023 19:28 18,6 C 22,8 C 12,8 C 84 % 1020,6 hPa 0,0 l/m 2 min 0 min 259 W/m 3,2 km/h (1 Bft) 95,74 %
17.07.2023 19:30 18,7 C 22,8 C 12,8 C 84 % 1020,5 hPa 0,0 l/m 2 min 0 min 249 W/m 6,4 km/h (2 Bft) 97,87 %
17.07.2023 19:32 18,7 C 21,7 C 12,8 C 83 % 1020,5 hPa 0,0 l/m 2 min 0 min 244 W/m 6,4 km/h (2 Bft) 97,87 %
17.07.2023 19:34 18,8 C 20,6 C 12,8 C 84 % 1020,5 hPa 0,0 l/m 2 min 0 min 240 W/m 3,2 km/h (1 Bft) 100,00 %
17.07.2023 19:36 18,8 C 19,4 C 12,8 C 83 % 1020,5 hPa 0,0 l/m 2 min 0 min 233 W/m 0,0 km/h (0 Bft) 95,74 %
17.07.2023 19:38 18,8 C 18,9 C 12,2 C 83 % 1020,5 hPa 0,0 l/m 2 min 0 min 229 W/m 3,2 km/h (1 Bft) 97,87 %
17.07.2023 19:40 18,8 C 18,9 C 12,2 C 82 % 1020,5 hPa 0,0 l/m 2 min 0 min 222 W/m 6,4 km/h (2 Bft) 95,65 %
17.07.2023 19:42 18,8 C 18,3 C 12,2 C 81 % 1020,6 hPa 0,0 l/m 2 min 0 min 215 W/m 3,2 km/h (1 Bft) 95,74 %
17.07.2023 19:44 18,8 C 18,3 C 12,2 C 81 % 1020,6 hPa 0,0 l/m 2 min 0 min 209 W/m 3,2 km/h (1 Bft) 95,74 %
17.07.2023 19:46 18,8 C 18,3 C 12,2 C 81 % 1020,6 hPa 0,0 l/m 2 min 0 min 201 W/m 6,4 km/h (2 Bft) 95,74 %
17.07.2023 19:48 18,9 C 18,3 C 12,2 C 81 % 1020,7 hPa 0,0 l/m 2 min 0 min 195 W/m 3,2 km/h (1 Bft) 95,74 %
17.07.2023 19:50 18,9 C 18,3 C 12,2 C 81 % 1020,7 hPa 0,0 l/m 2 min 0 min 180 W/m 3,2 km/h (1 Bft) 93,62 %
17.07.2023 19:52 18,9 C 18,3 C 12,2 C 81 % 1020,7 hPa 0,0 l/m 0 min 0 min 113 W/m 3,2 km/h (1 Bft) 95,65 %
17.07.2023 19:54 18,9 C 18,3 C 12,2 C 80 % 1020,7 hPa 0,0 l/m 0 min 0 min 60 W/m 6,4 km/h (2 Bft) 95,74 %
17.07.2023 19:56 18,9 C 18,3 C 12,2 C 79 % 1020,7 hPa 0,0 l/m 0 min 0 min 53 W/m 3,2 km/h (1 Bft) 95,74 %
17.07.2023 19:58 18,9 C 18,3 C 12,2 C 80 % 1020,6 hPa 0,0 l/m 0 min 0 min 52 W/m 3,2 km/h (1 Bft) 95,74 %
17.07.2023 20:00 18,9 C 18,3 C 12,2 C 79 % 1020,7 hPa 0,0 l/m 0 min 0 min 51 W/m 3,2 km/h (1 Bft) 95,74 %
17.07.2023 20:02 18,9 C 18,3 C 12,2 C 79 % 1020,7 hPa 0,0 l/m 0 min 0 min 49 W/m 9,7 km/h (2 Bft) 89,36 %
17.07.2023 20:04 18,9 C 18,3 C 12,2 C 79 % 1020,7 hPa 0,0 l/m 0 min 0 min 49 W/m 3,2 km/h (1 Bft) 95,24 %
17.07.2023 20:06 18,9 C 18,3 C 12,2 C 80 % 1020,7 hPa 0,0 l/m 0 min 0 min 47 W/m 3,2 km/h (1 Bft) 95,65 %
17.07.2023 20:08 18,9 C 18,3 C 12,2 C 80 % 1020,7 hPa 0,0 l/m 0 min 0 min 47 W/m 3,2 km/h (1 Bft) 97,87 %
17.07.2023 20:10 18,9 C 18,3 C 12,2 C 80 % 1020,7 hPa 0,0 l/m 0 min 0 min 46 W/m 6,4 km/h (2 Bft) 97,87 %
17.07.2023 20:12 18,8 C 18,3 C 12,2 C 79 % 1020,7 hPa 0,0 l/m 0 min 0 min 44 W/m 6,4 km/h (2 Bft) 95,74 %
17.07.2023 20:14 18,8 C 18,3 C 12,2 C 79 % 1020,7 hPa 0,0 l/m 0 min 0 min 42 W/m 3,2 km/h (1 Bft) 97,87 %
17.07.2023 20:16 18,8 C 18,3 C 11,7 C 79 % 1020,7 hPa 0,0 l/m 0 min 0 min 42 W/m 6,4 km/h (2 Bft) 97,87 %
17.07.2023 20:18 18,8 C 18,3 C 12,2 C 79 % 1020,8 hPa 0,0 l/m 0 min 0 min 41 W/m 3,2 km/h (1 Bft) 97,87 %
17.07.2023 20:20 18,8 C 18,3 C 12,2 C 79 % 1020,8 hPa 0,0 l/m 0 min 0 min 40 W/m 6,4 km/h (2 Bft) 97,83 %
17.07.2023 20:22 18,8 C 18,3 C 12,2 C 79 % 1020,8 hPa 0,0 l/m 0 min 0 min 39 W/m 0,0 km/h (0 Bft) 100,00 %
17.07.2023 20:24 18,8 C 18,3 C 12,2 C 79 % 1020,8 hPa 0,0 l/m 0 min 0 min 38 W/m 0,0 km/h (0 Bft) 100,00 %
17.07.2023 20:26 18,8 C 17,8 C 12,2 C 79 % 1020,9 hPa 0,0 l/m 0 min 0 min 37 W/m 6,4 km/h (2 Bft) 100,00 %
17.07.2023 20:28 18,8 C 17,8 C 12,2 C 79 % 1020,9 hPa 0,0 l/m 0 min 0 min 36 W/m 6,4 km/h (2 Bft) 100,00 %
17.07.2023 20:30 18,8 C 17,8 C 12,2 C 80 % 1020,9 hPa 0,0 l/m 0 min 0 min 34 W/m 3,2 km/h (1 Bft) 100,00 %
17.07.2023 20:32 18,8 C 18,3 C 12,2 C 80 % 1020,9 hPa 0,0 l/m 0 min 0 min 33 W/m 3,2 km/h (1 Bft) 100,00 %
17.07.2023 20:34 18,8 C 18,3 C 12,2 C 80 % 1021,0 hPa 0,0 l/m 0 min 0 min 33 W/m 0,0 km/h (0 Bft) 100,00 %
17.07.2023 20:36 18,8 C 18,3 C 12,2 C 80 % 1021,0 hPa 0,0 l/m 0 min 0 min 32 W/m 3,2 km/h (1 Bft) 100,00 %
17.07.2023 20:38 18,8 C 18,3 C 12,8 C 80 % 1021,0 hPa 0,0 l/m 0 min 0 min 32 W/m 3,2 km/h (1 Bft) 97,87 %
17.07.2023 20:40 18,8 C 18,3 C 13,3 C 80 % 1021,1 hPa 0,0 l/m 0 min 0 min 30 W/m 3,2 km/h (1 Bft) 97,87 %
17.07.2023 20:42 18,8 C 18,3 C 13,3 C 79 % 1021,0 hPa 0,0 l/m 0 min 0 min 30 W/m 3,2 km/h (1 Bft) 100,00 %
17.07.2023 20:44 18,8 C 18,3 C 13,3 C 80 % 1021,0 hPa 0,0 l/m 0 min 0 min 28 W/m 3,2 km/h (1 Bft) 100,00 %
17.07.2023 20:46 18,8 C 18,3 C 13,3 C 80 % 1021,0 hPa 0,0 l/m 0 min 0 min 28 W/m 3,2 km/h (1 Bft) 100,00 %
17.07.2023 20:48 18,8 C 17,8 C 13,9 C 80 % 1021,0 hPa 0,0 l/m 0 min 0 min 26 W/m 3,2 km/h (1 Bft) 97,87 %
17.07.2023 20:50 18,8 C 17,8 C 13,9 C 80 % 1021,1 hPa 0,0 l/m 0 min 0 min 26 W/m 3,2 km/h (1 Bft) 100,00 %
17.07.2023 20:52 18,8 C 17,8 C 13,9 C 80 % 1021,1 hPa 0,0 l/m 0 min 0 min 25 W/m 3,2 km/h (1 Bft) 100,00 %
17.07.2023 20:54 18,8 C 17,8 C 13,9 C 80 % 1021,1 hPa 0,0 l/m 0 min 0 min 24 W/m 3,2 km/h (1 Bft) 100,00 %
17.07.2023 20:56 18,8 C 17,8 C 13,9 C 81 % 1021,1 hPa 0,0 l/m 0 min 0 min 23 W/m 0,0 km/h (0 Bft) 97,83 %
17.07.2023 20:58 18,8 C 17,8 C 13,9 C 81 % 1021,1 hPa 0,0 l/m 0 min 0 min 22 W/m 3,2 km/h (1 Bft) 100,00 %
17.07.2023 21:00 18,8 C 17,8 C 13,9 C 80 % 1021,2 hPa 0,0 l/m 0 min 0 min 21 W/m 6,4 km/h (2 Bft) 93,62 %
17.07.2023 21:02 18,8 C 17,8 C 13,9 C 80 % 1021,2 hPa 0,0 l/m 0 min 0 min 20 W/m 3,2 km/h (1 Bft) 100,00 %
17.07.2023 21:04 18,8 C 17,8 C 13,9 C 80 % 1021,1 hPa 0,0 l/m 0 min 0 min 19 W/m 3,2 km/h (1 Bft) 97,73 %
17.07.2023 21:06 18,7 C 17,8 C 13,9 C 80 % 1021,1 hPa 0,0 l/m 0 min 0 min 19 W/m 0,0 km/h (0 Bft) 95,74 %
17.07.2023 21:08 18,7 C 17,8 C 13,9 C 80 % 1021,1 hPa 0,0 l/m 0 min 0 min 18 W/m 0,0 km/h (0 Bft) 97,83 %
17.07.2023 21:10 18,7 C 17,2 C 13,9 C 80 % 1021,2 hPa 0,0 l/m 0 min 0 min 18 W/m 0,0 km/h (0 Bft) 95,74 %
17.07.2023 21:12 18,7 C 17,2 C 13,3 C 81 % 1021,1 hPa 0,0 l/m 0 min 0 min 16 W/m 0,0 km/h (0 Bft) 97,87 %
17.07.2023 21:14 18,7 C 17,2 C 13,3 C 81 % 1021,2 hPa 0,0 l/m 0 min 0 min 16 W/m 3,2 km/h (1 Bft) 97,87 %
17.07.2023 21:16 18,6 C 17,2 C 13,3 C 81 % 1021,2 hPa 0,0 l/m 0 min 0 min 14 W/m 0,0 km/h (0 Bft) 95,74 %
17.07.2023 21:18 18,6 C 17,2 C 13,9 C 81 % 1021,2 hPa 0,0 l/m 0 min 0 min 14 W/m 3,2 km/h (1 Bft) 97,87 %
17.07.2023 21:20 18,6 C 17,2 C 13,3 C 81 % 1021,3 hPa 0,0 l/m 0 min 0 min 12 W/m 3,2 km/h (1 Bft) 95,74 %
17.07.2023 21:22 18,6 C 17,2 C 13,3 C 81 % 1021,2 hPa 0,0 l/m 0 min 0 min 12 W/m 0,0 km/h (0 Bft) 95,65 %
17.07.2023 21:24 18,5 C 17,2 C 13,3 C 81 % 1021,2 hPa 0,0 l/m 0 min 0 min 11 W/m 3,2 km/h (1 Bft) 97,87 %
17.07.2023 21:26 18,4 C 17,2 C 13,3 C 81 % 1021,3 hPa 0,0 l/m 0 min 0 min 11 W/m 0,0 km/h (0 Bft) 97,87 %
17.07.2023 21:28 18,4 C 17,2 C 13,3 C 81 % 1021,3 hPa 0,0 l/m 0 min 0 min 9 W/m 3,2 km/h (1 Bft) 95,74 %
17.07.2023 21:30 18,4 C 17,2 C 13,3 C 82 % 1021,2 hPa 0,0 l/m 0 min 0 min 9 W/m 0,0 km/h (0 Bft) 95,74 %
17.07.2023 21:32 18,4 C 17,2 C 13,3 C 82 % 1021,3 hPa 0,0 l/m 0 min 0 min 7 W/m 3,2 km/h (1 Bft) 93,62 %
17.07.2023 21:34 18,3 C 17,2 C 13,3 C 82 % 1021,4 hPa 0,0 l/m 0 min 0 min 7 W/m 3,2 km/h (1 Bft) 95,65 %
17.07.2023 21:36 18,3 C 17,2 C 13,3 C 82 % 1021,4 hPa 0,0 l/m 0 min 0 min 6 W/m 0,0 km/h (0 Bft) 95,74 %
17.07.2023 21:38 18,3 C 16,7 C 13,3 C 82 % 1021,4 hPa 0,0 l/m 0 min 0 min 5 W/m 0,0 km/h (0 Bft) 95,74 %
17.07.2023 21:40 18,2 C 16,7 C 13,3 C 82 % 1021,4 hPa 0,0 l/m 0 min 0 min 5 W/m 0,0 km/h (0 Bft) 95,74 %
17.07.2023 21:42 18,2 C 16,7 C 13,3 C 82 % 1021,4 hPa 0,0 l/m 0 min 0 min 1 W/m 0,0 km/h (0 Bft) 95,74 %
17.07.2023 21:44 18,2 C 16,7 C 12,8 C 82 % 1021,5 hPa 0,0 l/m 0 min 0 min 0 W/m 0,0 km/h (0 Bft) 93,62 %
17.07.2023 21:46 18,2 C 16,7 C 12,8 C 82 % 1021,5 hPa 0,0 l/m 0 min 0 min 0 W/m 3,2 km/h (1 Bft) 95,74 %
17.07.2023 21:48 18,1 C 16,7 C 12,8 C 82 % 1021,5 hPa 0,0 l/m 0 min 0 min 0 W/m 0,0 km/h (0 Bft) 95,65 %
17.07.2023 21:50 18,1 C 16,7 C 12,8 C 82 % 1021,4 hPa 0,0 l/m 0 min 0 min 0 W/m 0,0 km/h (0 Bft) 94,44 %
17.07.2023 21:52 18,0 C 16,7 C 12,8 C 82 % 1021,5 hPa 0,0 l/m 0 min 0 min 0 W/m 0,0 km/h (0 Bft) 91,49 %
17.07.2023 21:54 17,9 C 16,7 C 12,8 C 82 % 1021,5 hPa 0,0 l/m 0 min 0 min 0 W/m 3,2 km/h (1 Bft) 95,74 %
17.07.2023 21:56 17,9 C 16,7 C 12,8 C 83 % 1021,5 hPa 0,0 l/m 0 min 0 min 0 W/m 0,0 km/h (0 Bft) 95,74 %
17.07.2023 21:58 17,9 C 16,7 C 12,8 C 83 % 1021,5 hPa 0,0 l/m 0 min 0 min 0 W/m 0,0 km/h (0 Bft) 97,83 %
17.07.2023 22:00 17,9 C 16,7 C 12,8 C 83 % 1021,6 hPa 0,0 l/m 0 min 0 min 0 W/m 0,0 km/h (0 Bft) 97,87 %
17.07.2023 22:02 17,8 C 16,1 C 12,8 C 83 % 1021,6 hPa 0,0 l/m 0 min 0 min 0 W/m 0,0 km/h (0 Bft) 97,87 %
17.07.2023 22:04 17,8 C 16,1 C 12,8 C 83 % 1021,6 hPa 0,0 l/m 0 min 0 min 0 W/m 0,0 km/h (0 Bft) 100,00 %
17.07.2023 22:06 17,8 C 16,1 C 12,8 C 83 % 1021,6 hPa 0,0 l/m 0 min 0 min 0 W/m 0,0 km/h (0 Bft) 97,87 %
17.07.2023 22:08 17,8 C 16,1 C 12,2 C 83 % 1021,6 hPa 0,0 l/m 0 min 0 min 0 W/m 0,0 km/h (0 Bft) 100,00 %
17.07.2023 22:10 17,7 C 16,1 C 12,2 C 84 % 1021,6 hPa 0,0 l/m 0 min 0 min 0 W/m 0,0 km/h (0 Bft) 97,87 %
17.07.2023 22:12 17,7 C 16,1 C 12,2 C 84 % 1021,6 hPa 0,0 l/m 0 min 0 min 0 W/m 0,0 km/h (0 Bft) 95,65 %
17.07.2023 22:14 17,6 C 16,1 C 12,2 C 84 % 1021,6 hPa 0,0 l/m 0 min 0 min 0 W/m 0,0 km/h (0 Bft) 97,87 %
17.07.2023 22:16 17,6 C 16,1 C 12,2 C 85 % 1021,6 hPa 0,0 l/m 0 min 0 min 0 W/m 0,0 km/h (0 Bft) 95,74 %
17.07.2023 22:18 17,6 C 15,6 C 12,2 C 85 % 1021,6 hPa 0,0 l/m 0 min 0 min 0 W/m 0,0 km/h (0 Bft) 97,87 %
17.07.2023 22:20 17,5 C 15,6 C 12,2 C 85 % 1021,6 hPa 0,0 l/m 0 min 0 min 0 W/m 0,0 km/h (0 Bft) 97,87 %
17.07.2023 22:22 17,4 C 15,6 C 12,2 C 86 % 1021,7 hPa 0,0 l/m 0 min 0 min 0 W/m 0,0 km/h (0 Bft) 97,87 %
17.07.2023 22:24 17,4 C 15,6 C 12,2 C 86 % 1021,7 hPa 0,0 l/m 0 min 0 min 0 W/m 0,0 km/h (0 Bft) 93,48 %
17.07.2023 22:26 17,3 C 15,6 C 12,2 C 86 % 1021,7 hPa 0,0 l/m 0 min 0 min 0 W/m 3,2 km/h (1 Bft) 97,87 %
17.07.2023 22:28 17,3 C 15,6 C 12,2 C 86 % 1021,7 hPa 0,0 l/m 0 min 0 min 0 W/m 0,0 km/h (0 Bft) 97,87 %
17.07.2023 22:30 17,2 C 15,6 C 12,2 C 86 % 1021,8 hPa 0,0 l/m 0 min 0 min 0 W/m 0,0 km/h (0 Bft) 97,87 %
17.07.2023 22:32 17,2 C 16,1 C 12,2 C 86 % 1021,8 hPa 0,0 l/m 0 min 0 min 0 W/m 3,2 km/h (1 Bft) 95,74 %
17.07.2023 22:34 17,2 C 15,6 C 12,2 C 86 % 1021,8 hPa 0,0 l/m 0 min 0 min 0 W/m 0,0 km/h (0 Bft) 97,87 %
17.07.2023 22:36 17,2 C 15,6 C 12,2 C 86 % 1021,8 hPa 0,0 l/m 0 min 0 min 0 W/m 0,0 km/h (0 Bft) 97,87 %
17.07.2023 22:38 17,1 C 15,6 C 12,2 C 86 % 1021,8 hPa 0,0 l/m 0 min 0 min 0 W/m 0,0 km/h (0 Bft) 97,83 %
17.07.2023 22:40 17,1 C 15,6 C 11,7 C 87 % 1021,8 hPa 0,0 l/m 0 min 0 min 0 W/m 0,0 km/h (0 Bft) 95,74 %
17.07.2023 22:42 17,1 C 15,6 C 11,7 C 87 % 1021,9 hPa 0,0 l/m 0 min 0 min 0 W/m 3,2 km/h (1 Bft) 97,87 %
17.07.2023 22:44 17,1 C 15,6 C 11,7 C 87 % 1021,8 hPa 0,0 l/m 0 min 0 min 0 W/m 0,0 km/h (0 Bft) 97,87 %
17.07.2023 22:46 17,0 C 15,6 C 11,7 C 87 % 1021,9 hPa 0,0 l/m 0 min 0 min 0 W/m 0,0 km/h (0 Bft) 97,87 %
17.07.2023 22:48 17,0 C 15,6 C 11,7 C 87 % 1021,9 hPa 0,0 l/m 0 min 0 min 0 W/m 0,0 km/h (0 Bft) 97,87 %
17.07.2023 22:50 16,9 C 15,6 C 11,7 C 87 % 1021,9 hPa 0,0 l/m 0 min 0 min 0 W/m 0,0 km/h (0 Bft) 98,08 %
17.07.2023 22:52 16,9 C 15,6 C 11,7 C 87 % 1021,9 hPa 0,0 l/m 0 min 0 min 0 W/m 0,0 km/h (0 Bft) 100,00 %
17.07.2023 22:54 16,8 C 15,6 C 11,7 C 87 % 1021,9 hPa 0,0 l/m 0 min 0 min 0 W/m 3,2 km/h (1 Bft) 100,00 %
17.07.2023 22:56 16,8 C 15,6 C 11,7 C 87 % 1022,0 hPa 0,0 l/m 0 min 0 min 0 W/m 0,0 km/h (0 Bft) 97,87 %
17.07.2023 22:58 16,8 C 15,6 C 11,7 C 87 % 1022,0 hPa 0,0 l/m 0 min 0 min 0 W/m 0,0 km/h (0 Bft) 100,00 %
17.07.2023 23:00 16,8 C 15,6 C 11,7 C 87 % 1021,9 hPa 0,0 l/m 0 min 0 min 0 W/m 0,0 km/h (0 Bft) 100,00 %
17.07.2023 23:02 16,7 C 15,6 C 11,7 C 87 % 1021,9 hPa 0,0 l/m 0 min 0 min 0 W/m 0,0 km/h (0 Bft) 100,00 %
17.07.2023 23:04 16,7 C 15,6 C 11,7 C 87 % 1021,9 hPa 0,0 l/m 0 min 0 min 0 W/m 0,0 km/h (0 Bft) 97,67 %
17.07.2023 23:06 16,7 C 15,6 C 11,7 C 87 % 1021,9 hPa 0,0 l/m 0 min 0 min 0 W/m 0,0 km/h (0 Bft) 100,00 %
17.07.2023 23:08 16,7 C 15,6 C 11,7 C 88 % 1021,9 hPa 0,0 l/m 0 min 0 min 0 W/m 0,0 km/h (0 Bft) 100,00 %
17.07.2023 23:10 16,7 C 15,6 C 11,7 C 88 % 1021,9 hPa 0,0 l/m 0 min 0 min 0 W/m 0,0 km/h (0 Bft) 100,00 %
17.07.2023 23:12 16,7 C 15,0 C 11,7 C 88 % 1022,0 hPa 0,0 l/m 0 min 0 min 0 W/m 0,0 km/h (0 Bft) 95,74 %
17.07.2023 23:14 16,6 C 15,0 C 11,7 C 88 % 1021,9 hPa 0,0 l/m 0 min 0 min 0 W/m 0,0 km/h (0 Bft) 97,87 %
17.07.2023 23:16 16,6 C 15,0 C 11,7 C 88 % 1022,0 hPa 0,0 l/m 0 min 0 min 0 W/m 0,0 km/h (0 Bft) 97,83 %
17.07.2023 23:18 16,6 C 15,0 C 11,7 C 88 % 1022,0 hPa 0,0 l/m 0 min 0 min 0 W/m 0,0 km/h (0 Bft) 97,87 %
17.07.2023 23:20 16,5 C 15,0 C 11,7 C 88 % 1022,1 hPa 0,0 l/m 0 min 0 min 0 W/m 0,0 km/h (0 Bft) 95,74 %
17.07.2023 23:22 16,4 C 15,0 C 11,7 C 88 % 1022,0 hPa 0,0 l/m 0 min 0 min 0 W/m 0,0 km/h (0 Bft) 97,87 %
17.07.2023 23:24 16,4 C 15,0 C 11,1 C 88 % 1022,1 hPa 0,0 l/m 0 min 0 min 0 W/m 0,0 km/h (0 Bft) 95,74 %
17.07.2023 23:26 16,4 C 14,4 C 11,1 C 89 % 1022,0 hPa 0,0 l/m 0 min 0 min 0 W/m 0,0 km/h (0 Bft) 95,74 %
17.07.2023 23:28 16,3 C 14,4 C 11,1 C 89 % 1022,0 hPa 0,0 l/m 0 min 0 min 0 W/m 0,0 km/h (0 Bft) 95,65 %
17.07.2023 23:30 16,3 C 14,4 C 11,1 C 89 % 1022,0 hPa 0,0 l/m 0 min 0 min 0 W/m 0,0 km/h (0 Bft) 97,87 %
17.07.2023 23:32 16,2 C 14,4 C 11,1 C 89 % 1022,0 hPa 0,0 l/m 0 min 0 min 0 W/m 0,0 km/h (0 Bft) 95,74 %
17.07.2023 23:34 16,2 C 14,4 C 11,1 C 89 % 1022,1 hPa 0,0 l/m 0 min 0 min 0 W/m 0,0 km/h (0 Bft) 97,87 %
17.07.2023 23:36 16,1 C 14,4 C 11,1 C 89 % 1022,1 hPa 0,0 l/m 0 min 0 min 0 W/m 0,0 km/h (0 Bft) 97,87 %
17.07.2023 23:38 16,1 C 14,4 C 11,1 C 89 % 1022,0 hPa 0,0 l/m 0 min 0 min 0 W/m 0,0 km/h (0 Bft) 97,62 %
17.07.2023 23:40 16,1 C 14,4 C 11,1 C 90 % 1022,1 hPa 0,0 l/m 0 min 0 min 0 W/m 0,0 km/h (0 Bft) 100,00 %
17.07.2023 23:42 16,0 C 14,4 C 11,1 C 90 % 1022,0 hPa 0,0 l/m 0 min 0 min 0 W/m 0,0 km/h (0 Bft) 100,00 %
17.07.2023 23:44 15,9 C 14,4 C 11,1 C 90 % 1022,1 hPa 0,0 l/m 0 min 0 min 0 W/m 0,0 km/h (0 Bft) 100,00 %
17.07.2023 23:46 15,9 C 14,4 C 11,1 C 90 % 1022,1 hPa 0,0 l/m 0 min 0 min 0 W/m 0,0 km/h (0 Bft) 100,00 %
17.07.2023 23:48 15,8 C 14,4 C 11,1 C 90 % 1022,1 hPa 0,0 l/m 0 min 0 min 0 W/m 0,0 km/h (0 Bft) 100,00 %
17.07.2023 23:50 15,8 C 14,4 C 11,1 C 90 % 1022,1 hPa 0,0 l/m 0 min 0 min 0 W/m 0,0 km/h (0 Bft) 100,00 %
17.07.2023 23:52 15,7 C 14,4 C 11,1 C 90 % 1022,1 hPa 0,0 l/m 0 min 0 min 0 W/m 0,0 km/h (0 Bft) 100,00 %
17.07.2023 23:54 15,7 C 14,4 C 11,1 C 90 % 1022,1 hPa 0,0 l/m 0 min 0 min 0 W/m 0,0 km/h (0 Bft) 100,00 %
17.07.2023 23:56 15,7 C 14,4 C 11,1 C 90 % 1022,1 hPa 0,0 l/m 0 min 0 min 0 W/m 0,0 km/h (0 Bft) 100,00 %
17.07.2023 23:58 15,6 C 14,4 C 11,1 C 90 % 1022,1 hPa 0,0 l/m 0 min 0 min 0 W/m 0,0 km/h (0 Bft) 100,00 %
_ Min-Zeit 06:07 05:28 03:34 15:30 00:12 - - - - 00:00 00:02
Minimum _ 15,4 C 14,4 C 11,1 C 52 % 1015,8 hPa - - - - 0,0 km/h (0 Bft) 20,00 %
_ Max-Zeit 14:50 14:22 11:50 04:30 23:20 18:07 10:09 18:12 14:32 17:54 00:00
Maximum _ 24,3 C 28,9 C 21,7 C 91 % 1022,1 hPa 1,4 l/m 5 min 4 min 1144 W/m 45,1 km/h
N-NW (6 Bft)
100,00 %
Durchschnitt _ 18,9 C 19,2 C 14,8 C 78 % 1019,0 hPa #2,6 l/m #7:50 h #1:10 h 356 W/m 10,3 km/h (2 Bft) 97,27 %
© 2023 W. Hausmann